Latitude: N 50° 09' 49" Longitude: W 05° 11' 53" Elevation: 168m ASL

There are 10 visitors online

Adverts

<- Previous Day | Today | Next Day ->

All Data for 15 January 2018

Time
A - D
Temp
A - D
Dew Point
A - D
Humidity
A - D
Pressure
A - D
Wind
A - D
Wind Dir Gust
A - D
Rain Rate
A - D
Rain Total
00:00 8.5 8.4 99 1011.4 21.3 S 22.8 0.8 0.0
00:02 8.5 8.4 99 1011.4 21.3 S 22.8 0.8 0.0
00:03 8.5 8.4 99 1011.5 15.9 S 22.8 0.8 0.0
00:05 8.5 8.4 99 1011.4 22.1 S 22.8 0.0 0.0
00:06 8.5 8.4 99 1011.3 21.3 S 22.8 0.0 0.0
00:08 8.5 8.4 99 1011.1 18.3 WSW 24.4 0.0 0.0
00:09 8.5 8.4 99 1011.1 22.1 S 24.4 0.0 0.0
00:11 8.5 8.4 99 1011.2 21.3 S 24.4 0.0 0.0
00:12 8.5 8.4 99 1010.9 22.1 S 24.4 0.8 0.1
00:14 8.5 8.4 99 1011.1 22.1 S 27.3 1.5 0.1
00:15 8.5 8.4 99 1011.0 25.1 WSW 27.3 1.5 0.1
00:17 8.5 8.4 99 1010.8 19.7 WSW 27.3 0.8 0.1
00:18 8.5 8.4 99 1010.7 21.3 SE 27.3 1.5 0.2
00:19 8.5 8.4 99 1010.9 21.3 S 27.3 0.8 0.2
00:20 8.5 8.4 99 1010.8 18.3 WSW 27.3 0.8 0.2
00:21 8.5 8.4 99 1010.6 21.3 WSW 27.3 0.8 0.2
00:22 8.5 8.4 99 1010.7 21.3 S 27.3 0.8 0.2
00:23 8.5 8.4 99 1010.7 21.3 SE 27.3 0.0 0.2
00:24 8.5 8.4 99 1010.7 19.0 S 25.1 0.0 0.3
00:26 8.5 8.4 99 1010.7 23.5 S 25.1 0.8 0.3
00:27 8.5 8.4 99 1010.7 23.5 S 23.5 0.8 0.3
00:28 8.5 8.4 99 1010.5 19.0 S 23.5 0.8 0.3
00:29 8.5 8.4 99 1010.6 22.1 S 23.5 0.8 0.3
00:30 8.5 8.4 99 1010.7 19.7 WSW 23.5 0.0 0.3
00:31 8.4 8.3 99 1010.7 14.5 N 23.5 0.0 0.3
00:32 8.4 8.3 99 1010.7 19.0 WSW 23.5 0.0 0.3
00:33 8.4 8.3 99 1010.7 25.9 WSW 25.9 0.0 0.3
00:34 8.4 8.3 99 1010.7 25.1 NNW 25.9 0.0 0.3
00:35 8.4 8.3 99 1010.7 26.6 WSW 26.6 0.0 0.3
00:36 8.4 8.3 99 1010.9 19.0 S 26.6 0.0 0.3
00:37 8.4 8.3 99 1010.8 22.1 WSW 26.6 0.0 0.3
00:38 8.4 8.3 99 1010.8 18.3 WSW 26.6 0.8 0.3
00:39 8.4 8.3 99 1010.5 21.3 S 26.6 0.8 0.3
00:41 8.3 8.2 99 1010.8 19.7 WSW 26.6 0.8 0.3
00:42 8.3 8.2 99 1010.7 16.8 S 26.6 0.8 0.3
00:43 8.3 8.2 99 1010.4 18.3 WSW 26.6 0.0 0.3
00:44 8.3 8.2 99 1010.6 18.3 S 26.6 0.0 0.3
00:45 8.3 8.2 99 1010.5 18.3 S 26.6 0.0 0.3
00:46 8.2 8.1 99 1010.5 19.0 S 26.6 0.0 0.3
00:47 8.2 8.1 99 1010.2 18.3 NNE 22.1 0.0 0.3
00:48 8.2 8.1 99 1010.3 19.7 S 21.3 0.0 0.3
00:49 8.2 8.1 99 1010.2 17.4 S 21.3 0.0 0.3
00:50 8.2 8.1 99 1010.2 19.7 S 21.3 0.0 0.3
00:51 8.2 8.1 99 1010.1 21.3 S 21.3 0.0 0.3
00:52 8.2 8.1 99 1010.1 19.0 S 21.3 0.0 0.3
00:53 8.2 8.1 99 1010.1 18.3 S 21.3 0.0 0.3
00:54 8.2 8.1 99 1009.9 18.3 S 21.3 0.0 0.3
00:55 8.2 8.1 99 1010.0 21.3 SE 21.3 0.0 0.4
00:56 8.2 8.1 99 1010.0 17.4 NW 21.3 0.8 0.4
00:58 8.2 8.1 99 1009.9 18.3 WSW 21.3 0.8 0.4
00:59 8.2 8.1 99 1009.9 19.7 S 21.3 0.8 0.4
01:00 8.2 8.1 99 1009.7 16.8 S 21.3 0.8 0.4
01:01 8.2 8.1 99 1009.9 16.8 S 21.3 0.0 0.4
01:02 8.2 8.1 99 1009.9 16.8 S 21.3 0.0 0.4
01:03 8.3 8.2 99 1009.9 22.1 S 22.8 0.8 0.4
01:04 8.3 8.2 99 1009.9 26.6 S 26.6 0.8 0.4
01:05 8.3 8.2 99 1009.8 28.2 WSW 28.9 0.8 0.4
01:06 8.3 8.2 99 1010.1 25.1 NNW 28.9 0.8 0.4
01:07 8.4 8.3 99 1010.2 18.3 S 28.9 1.5 0.5
01:08 8.4 8.3 99 1009.9 25.1 S 28.9 0.8 0.5
01:10 8.4 8.3 99 1010.0 21.3 S 28.9 0.8 0.5
01:11 8.4 8.3 99 1009.9 24.4 WSW 28.9 1.5 0.6
01:12 8.4 8.3 99 1009.8 27.3 WSW 28.9 0.8 0.6
01:13 8.4 8.3 99 1009.7 28.2 S 28.9 1.5 0.6
01:14 8.4 8.3 99 1009.8 22.8 S 28.9 1.5 0.7
01:15 8.4 8.3 99 1009.8 20.6 S 28.9 2.3 0.7
01:16 8.4 8.3 99 1009.9 24.4 W 28.9 1.5 0.7
01:17 8.4 8.3 99 1009.7 22.1 S 28.9 1.5 0.8
01:18 8.4 8.3 99 1009.7 27.3 S 28.9 1.5 0.8
01:20 8.4 8.3 99 1009.4 19.7 S 28.2 1.5 0.8
01:21 8.4 8.3 99 1009.6 26.6 S 28.2 2.3 0.9
01:22 8.4 8.3 99 1009.4 25.1 S 28.2 3.0 0.9
01:23 8.5 8.4 99 1009.4 18.3 S 27.3 3.0 1.0
01:24 8.4 8.3 99 1009.6 16.8 S 27.3 3.0 1.1
01:25 8.5 8.4 99 1009.5 25.1 WSW 27.3 3.0 1.1
01:26 8.4 8.3 99 1009.4 23.5 WSW 27.3 2.3 1.1
01:27 8.4 8.3 99 1009.3 26.6 S 27.3 2.3 1.2
01:28 8.4 8.3 99 1009.3 22.8 S 26.6 2.3 1.2
01:29 8.4 8.3 99 1009.3 23.5 WSW 26.6 1.5 1.2
01:30 8.4 8.3 99 1009.2 20.6 S 26.6 1.5 1.2
01:31 8.4 8.3 99 1009.1 23.5 S 26.6 1.5 1.2
01:33 8.4 8.3 99 1009.1 22.8 WSW 26.6 0.0 1.2
01:34 8.4 8.3 99 1009.3 25.1 S 26.6 0.8 1.3
01:35 8.4 8.3 99 1009.3 24.4 S 26.6 0.8 1.3
01:36 8.4 8.3 99 1009.2 27.3 S 27.3 0.8 1.3
01:37 8.5 8.4 99 1009.1 25.1 S 27.3 1.5 1.3
01:38 8.5 8.4 99 1009.1 28.2 S 28.2 1.5 1.3
01:40 8.5 8.4 99 1008.9 25.9 S 28.2 0.8 1.3
01:41 8.5 8.4 99 1008.9 27.3 S 28.2 1.5 1.4
01:42 8.5 8.4 99 1008.8 25.9 WSW 28.2 0.8 1.4
01:43 8.5 8.4 99 1008.8 23.5 S 28.2 0.8 1.4
01:44 8.6 8.5 99 1008.7 21.3 NE 28.9 0.8 1.4
01:45 8.6 8.5 99 1008.4 19.7 SE 28.9 0.8 1.4
01:46 8.6 8.5 99 1008.7 26.6 S 28.9 0.8 1.4
01:47 8.6 8.5 99 1008.5 19.0 S 31.1 0.8 1.4
01:49 8.6 8.5 99 1008.4 22.8 SW 31.1 0.8 1.5
01:50 8.6 8.5 99 1008.4 23.5 WSW 31.1 1.5 1.5
01:51 8.6 8.5 99 1008.5 23.5 WSW 31.1 0.8 1.5
01:52 8.6 8.5 99 1008.4 25.1 S 31.1 0.8 1.5
01:53 8.6 8.5 99 1008.4 16.8 S 31.1 0.8 1.5
01:54 8.7 8.6 99 1008.4 24.4 NW 31.1 1.5 1.6
01:55 8.7 8.6 99 1008.5 23.5 S 31.1 0.8 1.6
01:56 8.7 8.6 99 1008.1 25.1 WSW 31.1 0.8 1.6
01:57 8.7 8.6 99 1008.2 22.1 S 27.3 0.8 1.6
01:58 8.7 8.6 99 1008.1 16.8 S 27.3 1.5 1.6
01:59 8.7 8.6 99 1008.2 26.6 S 26.6 0.8 1.6
02:00 8.7 8.6 99 1008.2 26.6 S 26.6 0.8 1.6
02:01 8.7 8.6 99 1008.1 26.6 S 26.6 0.8 1.6
02:02 8.7 8.6 99 1008.0 18.3 S 26.6 0.8 1.7
02:03 8.7 8.6 99 1008.2 22.8 S 26.6 1.5 1.8
02:05 8.8 8.7 99 1008.0 22.8 S 26.6 2.3 1.8
02:06 8.7 8.6 99 1008.0 27.3 S 27.3 3.0 1.9
02:07 8.8 8.7 99 1008.1 23.5 WSW 27.3 3.0 1.9
02:08 8.7 8.6 99 1007.9 24.4 WSW 27.3 1.5 1.9
02:09 8.8 8.7 99 1008.0 26.6 W 30.4 2.3 2.0
02:10 8.8 8.7 99 1008.0 19.0 SE 30.4 1.5 2.0
02:11 8.8 8.7 99 1007.9 25.1 S 30.4 1.5 2.0
02:12 8.8 8.7 99 1007.9 21.3 NNW 30.4 1.5 2.0
02:13 8.8 8.7 99 1007.8 21.3 S 30.4 1.5 2.0
02:15 8.8 8.7 99 1007.7 20.6 SW 30.4 2.3 2.1
02:16 8.8 8.7 99 1007.8 22.8 SE 30.4 1.5 2.1
02:17 8.8 8.7 99 1007.9 25.9 S 30.4 2.3 2.2
02:18 8.8 8.7 99 1007.8 22.8 SE 30.4 2.3 2.2
02:19 8.8 8.7 99 1007.7 28.2 WSW 28.2 2.3 2.3
02:20 8.9 8.8 99 1007.7 25.1 S 28.2 1.5 2.3
02:21 8.9 8.8 99 1007.8 23.5 S 28.2 1.5 2.3
02:22 8.9 8.8 99 1007.7 20.6 S 28.2 0.8 2.3
02:23 8.9 8.8 99 1007.7 23.5 S 28.2 1.5 2.3
02:24 8.9 8.8 99 1007.5 27.3 NNW 28.2 0.8 2.3
02:25 8.9 8.8 99 1007.7 28.2 S 28.2 0.8 2.4
02:26 9.0 8.9 99 1007.6 28.9 S 28.9 1.5 2.4
02:27 9.0 8.9 99 1007.4 23.5 S 28.9 1.5 2.4
02:29 9.0 8.9 99 1007.3 24.4 S 28.9 0.8 2.4
02:30 9.0 8.9 99 1007.2 24.4 SW 28.9 1.5 2.5
02:31 9.0 8.9 99 1007.4 21.3 S 28.9 0.8 2.5
02:32 9.0 8.9 99 1007.6 23.5 SW 28.9 1.5 2.5
02:33 9.0 8.9 99 1007.6 28.2 S 28.9 1.5 2.5
02:34 9.0 8.9 99 1007.5 22.8 NNE 28.9 1.5 2.5
02:35 9.0 8.9 99 1007.4 24.4 WSW 28.9 1.5 2.6
02:36 8.9 8.8 99 1007.4 31.1 S 31.1 1.5 2.6
02:37 9.1 9.0 99 1007.3 28.9 S 31.1 0.8 2.6
02:38 9.1 9.0 99 1007.3 26.6 N 31.1 1.5 2.6
02:39 9.1 9.0 99 1007.3 21.3 S 31.1 1.5 2.6
02:40 9.1 9.0 99 1007.0 20.6 S 31.1 0.8 2.6
02:41 9.1 9.0 99 1007.2 21.3 SE 31.1 0.8 2.7
02:42 9.1 9.0 99 1007.1 19.0 S 31.1 1.5 2.7
02:43 9.1 9.0 99 1007.1 22.8 NW 31.1 0.8 2.7
02:45 9.2 9.1 99 1007.1 24.4 WSW 31.1 0.8 2.7
02:46 9.2 9.1 99 1006.9 27.3 NNW 31.1 1.5 2.8
02:47 9.2 9.1 99 1006.8 25.1 S 28.9 0.8 2.8
02:48 8.9 8.8 99 1006.8 25.1 WSW 27.3 0.8 2.8
02:49 9.2 9.1 99 1006.7 28.2 W 28.2 0.8 2.8
02:50 9.2 9.1 99 1006.7 26.6 WSW 28.2 1.5 2.8
02:51 9.2 9.1 99 1006.8 22.1 WSW 28.2 0.8 2.8
02:52 9.2 9.1 99 1006.7 28.9 WSW 28.9 1.5 2.9
02:53 9.3 9.2 99 1006.7 22.8 S 28.9 1.5 3.0
02:54 9.3 9.2 99 1006.8 28.2 WSW 28.9 2.3 3.0
02:55 9.3 9.2 99 1006.7 23.5 S 28.9 2.3 3.0
02:56 9.3 9.2 99 1006.7 25.9 S 28.9 2.3 3.0
02:57 9.3 9.2 99 1006.7 28.2 WSW 28.9 1.5 3.1
02:59 9.3 9.2 99 1006.5 21.3 S 28.9 1.5 3.1
03:00 9.3 9.2 99 1006.7 25.1 S 28.9 0.8 3.1
03:01 9.3 9.2 99 1006.6 25.1 S 28.9 0.8 3.1
03:02 9.3 9.2 99 1006.4 25.1 S 28.9 0.8 3.1
03:03 9.4 9.3 99 1006.4 23.5 S 28.2 0.8 3.1
03:04 9.4 9.3 99 1006.5 27.3 S 28.2 0.8 3.1
03:05 9.4 9.3 99 1006.6 28.2 WSW 28.2 1.5 3.2
03:06 9.4 9.3 99 1006.5 29.8 S 31.1 1.5 3.3
03:07 9.4 9.3 99 1006.4 25.1 S 31.1 2.3 3.3
03:08 9.4 9.3 99 1006.4 29.8 S 31.1 1.5 3.3
03:09 9.4 9.3 99 1006.4 25.1 SE 31.1 2.3 3.4
03:10 9.5 9.4 99 1006.2 22.8 WSW 31.1 2.3 3.4
03:12 9.5 9.4 99 1006.5 22.1 S 31.1 2.3 3.5
03:13 9.5 9.4 99 1006.3 25.9 NW 31.1 3.0 3.5
03:14 9.5 9.4 99 1006.3 28.9 S 31.1 2.3 3.6
03:15 9.5 9.4 99 1006.2 22.8 N 31.1 2.3 3.6
03:16 9.5 9.4 99 1006.2 28.2 WSW 29.8 3.0 3.7
03:17 9.5 9.4 99 1006.2 28.9 S 29.8 3.0 3.7
03:18 9.5 9.4 99 1006.1 22.8 S 30.4 3.0 3.8
03:19 9.5 9.4 99 1006.0 25.1 S 30.4 3.8 3.8
03:20 9.5 9.4 99 1006.2 35.8 S 35.8 3.8 3.9
03:21 9.5 9.4 99 1006.2 24.4 S 35.8 3.0 4.0
03:22 9.5 9.4 99 1006.0 22.8 S 35.8 3.0 4.0
03:23 9.5 9.4 99 1006.0 29.8 WSW 35.8 2.3 4.0
03:24 9.6 9.5 99 1006.0 33.6 WSW 35.8 2.3 4.0
03:25 9.6 9.5 99 1005.9 31.1 S 35.8 1.5 4.1
03:26 9.6 9.5 99 1005.9 19.7 S 35.8 2.3 4.1
03:28 9.6 9.5 99 1005.9 24.4 S 35.8 2.3 4.2
03:29 9.6 9.5 99 1005.9 22.1 WSW 35.8 1.5 4.2
03:30 9.6 9.5 99 1006.1 25.9 S 35.8 1.5 4.2
03:31 9.6 9.5 99 1006.1 22.1 NNW 33.6 1.5 4.2
03:32 9.6 9.5 99 1005.8 33.6 S 33.6 2.3 4.3
03:33 9.6 9.5 99 1005.9 27.3 S 33.6 1.5 4.3
03:34 9.7 9.6 99 1005.9 22.1 N 33.6 2.3 4.3
03:35 9.7 9.6 99 1005.7 28.9 SE 33.6 2.3 4.4
03:36 9.7 9.6 99 1005.7 24.4 S 33.6 2.3 4.4
03:37 9.7 9.6 99 1005.8 26.6 WSW 33.6 1.5 4.5
03:38 9.7 9.6 99 1005.8 27.3 WSW 33.6 2.3 4.5
03:39 9.7 9.6 99 1005.8 28.9 SE 33.6 1.5 4.5
03:41 9.7 9.6 99 1005.8 25.1 WSW 33.6 1.5 4.5
03:42 9.7 9.6 99 1005.9 22.1 WSW 29.8 1.5 4.6
03:43 9.7 9.6 99 1005.7 26.6 WSW 29.8 1.5 4.7
03:44 9.7 9.6 99 1005.7 21.3 WSW 29.8 2.3 4.7
03:45 9.7 9.6 99 1005.7 15.2 S 28.9 1.5 4.7
03:47 9.7 9.6 99 1005.6 18.3 S 28.9 2.3 4.7
03:48 9.8 9.7 99 1005.7 28.2 S 28.9 1.5 4.7
03:49 9.8 9.7 99 1005.6 23.5 S 28.9 1.5 4.8
03:50 9.8 9.7 99 1005.6 28.2 S 28.9 1.5 4.8
03:51 9.8 9.7 99 1005.6 23.5 WSW 28.2 2.3 4.9
03:52 9.8 9.7 99 1005.6 26.6 WSW 28.2 1.5 4.9
03:53 9.8 9.7 99 1005.7 25.9 WSW 28.2 1.5 4.9
03:54 9.8 9.7 99 1005.7 27.3 S 28.2 1.5 4.9
03:55 9.8 9.7 99 1005.6 19.0 SE 28.2 1.5 4.9
03:57 9.8 9.7 99 1005.5 25.9 WSW 28.2 0.8 4.9
03:58 9.9 9.8 99 1005.6 25.9 WSW 28.2 1.5 5.0
03:59 9.8 9.7 99 1005.7 29.8 WSW 29.8 0.8 5.0
04:00 9.9 9.8 99 1005.6 25.1 S 29.8 1.5 5.0
04:01 9.9 9.8 99 1005.5 25.1 S 29.8 1.5 5.0
04:02 9.9 9.8 99 1005.7 25.1 S 29.8 1.5 5.0
04:03 9.9 9.8 99 1005.3 28.9 WSW 29.8 1.5 5.1
04:04 9.9 9.8 99 1005.5 22.1 S 29.8 1.5 5.1
04:05 10.0 9.9 99 1005.5 23.5 WSW 29.8 0.8 5.2
04:06 10.0 9.9 99 1005.2 26.6 S 29.8 1.5 5.2
04:07 10.0 9.9 99 1005.3 25.1 WSW 29.8 1.5 5.2
04:09 10.0 9.9 99 1005.3 22.1 WNW 29.8 0.8 5.2
04:10 10.0 9.9 99 1005.3 25.1 S 28.9 0.8 5.2
04:11 10.0 9.9 99 1005.2 25.1 S 28.9 0.8 5.2
04:12 10.0 9.9 99 1005.3 25.1 WSW 28.9 0.8 5.2
04:14 10.0 9.9 99 1005.2 32.7 S 32.7 0.8 5.2
04:15 10.1 10.0 99 1005.1 25.1 S 32.7 0.8 5.2
04:16 10.1 10.0 99 1005.2 21.3 S 32.7 0.8 5.3
04:17 10.1 10.0 99 1005.2 22.8 WSW 32.7 0.8 5.3
04:18 10.1 10.0 99 1005.1 24.4 WSW 32.7 0.8 5.3
04:19 10.1 10.0 99 1005.2 27.3 S 32.7 0.8 5.3
04:20 10.1 10.0 99 1005.0 28.2 WSW 32.7 1.5 5.4
04:21 10.1 10.0 99 1005.2 25.1 WSW 32.7 0.8 5.4
04:22 10.1 10.0 99 1005.1 24.4 S 32.7 0.8 5.4
04:23 10.1 10.0 99 1005.2 25.1 N 32.7 0.8 5.4
04:24 10.2 10.1 99 1005.2 26.6 S 28.2 0.8 5.4
04:25 10.2 10.1 99 1004.9 26.6 WSW 28.2 0.0 5.4
04:26 10.2 10.1 99 1005.1 21.3 S 28.2 0.0 5.4
04:27 10.2 10.1 99 1005.1 27.3 S 31.1 0.8 5.4
04:28 10.2 10.1 99 1005.0 27.3 NW 31.1 0.8 5.4
04:29 10.2 10.1 99 1005.1 22.1 NW 31.1 0.8 5.4
04:30 10.2 10.1 99 1005.1 25.9 W 31.1 0.8 5.4
04:32 10.2 10.1 99 1004.9 25.1 WSW 31.1 0.0 5.4
04:33 10.2 10.1 99 1004.8 24.4 WSW 31.1 0.0 5.4
04:34 10.2 10.1 99 1004.8 25.1 S 31.1 0.0 5.4
04:35 10.3 10.2 99 1004.9 20.6 W 31.1 0.0 5.4
04:36 10.3 10.2 99 1004.8 19.0 W 31.1 0.0 5.4
04:37 10.3 10.2 99 1004.8 22.8 S 31.1 0.0 5.4
04:38 10.3 10.2 99 1004.7 17.4 WSW 27.3 0.0 5.4
04:39 10.3 10.2 99 1004.7 21.3 WSW 25.9 0.0 5.4
04:40 10.3 10.2 99 1004.8 23.5 WNW 25.1 0.0 5.4
04:41 10.3 10.2 99 1004.5 25.1 WSW 25.1 0.0 5.4
04:42 10.3 10.2 99 1004.9 22.8 WSW 25.1 0.0 5.4
04:43 10.3 10.2 99 1004.9 19.7 WSW 25.1 0.0 5.4
04:44 10.3 10.2 99 1004.8 22.1 S 25.1 0.0 5.4
04:45 10.3 10.2 99 1004.6 25.9 WSW 25.9 0.0 5.5
04:46 10.3 10.2 99 1004.8 21.3 WSW 25.9 0.8 5.5
04:47 10.3 10.2 99 1004.4 19.7 WSW 25.9 0.8 5.5
04:48 10.3 10.2 99 1005.0 22.8 S 25.9 0.8 5.5
04:50 10.3 10.2 99 1004.6 17.4 S 25.9 0.8 5.5
04:51 10.3 10.2 99 1004.6 22.1 S 25.9 0.0 5.5
04:52 10.3 10.2 99 1004.7 19.0 WSW 25.9 0.0 5.5
04:53 10.3 10.2 99 1004.5 19.7 WSW 25.9 0.0 5.5
04:54 10.4 10.3 99 1004.7 18.3 WSW 25.9 0.0 5.5
04:55 10.3 10.2 99 1004.6 17.4 S 25.9 0.0 5.5
04:56 10.4 10.3 99 1004.5 17.4 WNW 23.5 0.0 5.5
04:57 10.4 10.3 99 1004.6 18.3 WSW 23.5 0.0 5.5
04:58 10.4 10.3 99 1004.6 15.9 WSW 23.5 0.0 5.5
04:59 10.4 10.3 99 1004.5 18.3 WSW 23.5 0.0 5.5
05:00 10.4 10.3 99 1004.4 18.3 WSW 22.8 0.0 5.5
05:01 10.4 10.3 99 1004.5 18.3 WSW 22.8 0.0 5.5
05:02 10.4 10.3 99 1004.3 16.8 WSW 22.8 0.0 5.5
05:03 10.3 10.2 99 1004.6 17.4 S 22.8 0.8 5.5
05:04 10.4 10.3 99 1004.6 14.5 S 18.3 0.8 5.5
05:05 10.4 10.3 99 1004.5 15.9 S 18.3 0.8 5.5
05:06 10.4 10.3 99 1004.4 20.6 S 20.6 0.8 5.5
05:08 10.4 10.3 99 1004.6 13.6 S 21.3 0.0 5.5
05:09 10.4 10.3 99 1004.4 13.6 WSW 21.3 0.0 5.5
05:10 10.4 10.3 99 1004.3 28.2 WSW 28.2 0.0 5.5
05:11 10.4 10.3 99 1004.4 19.7 WSW 28.2 0.0 5.5
05:12 10.4 10.3 99 1004.5 15.9 S 28.2 0.0 5.5
05:13 10.4 10.3 99 1004.3 24.4 WSW 28.2 0.0 5.5
05:14 10.4 10.3 99 1004.3 19.7 S 28.2 0.0 5.5
05:15 10.4 10.3 99 1004.4 20.6 WSW 28.2 0.0 5.5
05:16 10.4 10.3 99 1004.3 16.8 WSW 28.2 0.0 5.5
05:17 10.4 10.3 99 1004.4 25.1 S 28.2 0.0 5.5
05:18 10.4 10.3 99 1004.3 19.7 S 28.2 0.0 5.5
05:19 10.4 10.3 99 1004.2 15.9 WSW 28.2 0.0 5.5
05:20 10.4 10.3 99 1004.1 28.2 WSW 28.2 0.0 5.6
05:21 10.4 10.3 99 1004.2 27.3 WSW 28.2 0.8 5.6
05:22 10.4 10.3 99 1004.3 19.0 WSW 28.2 0.8 5.6
05:23 10.4 10.3 99 1004.2 21.3 WSW 28.2 0.8 5.6
05:24 10.4 10.3 99 1004.3 24.4 WSW 28.2 0.8 5.6
05:25 10.4 10.3 99 1004.2 15.9 WSW 28.2 0.8 5.6
05:27 10.4 10.3 99 1004.3 19.7 S 28.2 0.0 5.6
05:28 10.4 10.3 99 1004.3 19.0 WNW 28.2 0.0 5.6
05:29 10.4 10.3 99 1004.1 18.3 W 28.2 0.0 5.6
05:30 10.4 10.3 99 1004.0 21.3 WSW 28.2 0.0 5.6
05:31 10.3 10.2 99 1004.2 19.7 WSW 27.3 0.0 5.6
05:32 10.4 10.3 99 1004.0 19.7 WSW 25.1 0.0 5.6
05:33 10.3 10.2 99 1004.0 19.7 WSW 25.1 0.0 5.6
05:34 10.3 10.2 99 1004.2 22.1 WSW 25.1 0.0 5.6
05:35 10.3 10.2 99 1004.1 12.1 WSW 25.1 0.0 5.6
05:36 10.3 10.2 99 1004.0 19.7 WSW 25.1 0.0 5.6
05:37 10.3 10.2 99 1004.1 18.3 NW 25.1 0.0 5.6
05:38 10.3 10.2 99 1003.9 18.3 WSW 25.1 0.0 5.6
05:39 10.3 10.2 99 1004.1 15.9 SW 22.1 0.0 5.6
05:40 10.3 10.2 99 1003.9 13.0 S 22.1 0.0 5.6
05:41 10.3 10.2 99 1003.9 19.7 WSW 22.1 0.0 5.6
05:42 10.3 10.2 99 1003.8 17.4 WSW 22.1 0.0 5.6
05:44 10.3 10.2 99 1003.9 17.4 WSW 22.1 0.8 5.7
05:45 10.3 10.2 99 1004.0 21.3 S 21.3 0.8 5.7
05:46 10.3 10.2 99 1003.9 20.6 WSW 21.3 0.8 5.7
05:47 10.3 10.2 99 1004.0 14.5 WSW 21.3 0.8 5.7
05:48 10.3 10.2 99 1003.9 16.8 WSW 21.3 0.0 5.7
05:49 10.3 10.2 99 1003.8 13.6 WSW 21.3 0.0 5.7
05:50 10.3 10.2 99 1003.9 19.7 WNW 21.3 0.0 5.7
05:51 10.3 10.2 99 1003.8 22.1 WNW 22.1 0.0 5.7
05:52 10.3 10.2 99 1003.8 19.0 S 22.1 0.0 5.7
05:53 10.3 10.2 99 1003.8 24.4 WSW 24.4 0.0 5.7
05:54 10.3 10.2 99 1003.7 16.8 WSW 24.4 0.0 5.7
05:55 10.3 10.2 99 1003.8 20.6 S 24.4 0.0 5.7
05:56 10.3 10.2 99 1003.8 18.3 S 24.4 0.0 5.7
05:57 10.3 10.2 99 1003.9 20.6 WSW 24.4 0.0 5.7
05:58 10.3 10.2 99 1003.7 13.0 S 24.4 0.0 5.7
05:59 10.3 10.2 99 1003.9 21.3 WSW 28.2 0.0 5.7
06:01 10.3 10.2 99 1003.7 21.3 WSW 28.2 0.0 5.7
06:02 10.3 10.2 99 1003.7 18.3 WSW 28.2 0.0 5.7
06:03 10.3 10.2 99 1003.8 17.4 S 28.2 0.0 5.7
06:04 10.3 10.2 99 1003.7 19.0 WSW 28.2 0.0 5.7
06:05 10.3 10.2 99 1003.7 14.5 W 28.2 0.0 5.7
06:06 10.3 10.2 99 1003.7 13.6 WSW 28.2 0.0 5.7
06:07 10.3 10.2 99 1003.7 15.9 WSW 28.2 0.0 5.7
06:08 10.3 10.2 99 1003.7 20.6 S 28.2 0.0 5.7
06:10 10.3 10.2 99 1003.6 15.2 S 21.3 0.0 5.7
06:11 10.3 10.2 99 1003.7 13.6 S 21.3 0.0 5.7
06:13 10.2 10.1 99 1003.7 15.9 WSW 20.6 0.0 5.7
06:14 10.3 10.2 99 1003.6 21.3 WSW 21.3 0.0 5.7
06:15 10.3 10.2 99 1003.6 15.2 WSW 21.3 0.0 5.7
06:16 10.2 10.1 99 1003.4 13.6 S 21.3 0.0 5.7
06:17 10.3 10.2 99 1003.6 19.7 S 21.3 0.0 5.7
06:18 10.3 10.2 99 1003.5 17.4 WSW 21.3 0.0 5.7
06:19 10.3 10.2 99 1003.5 18.3 WSW 21.3 0.0 5.7
06:20 10.3 10.2 99 1003.5 15.2 WSW 21.3 0.0 5.7
06:22 10.2 10.1 99 1003.4 19.0 S 21.3 0.0 5.7
06:23 10.3 10.2 99 1003.4 13.6 WSW 21.3 0.0 5.7
06:24 10.3 10.2 99 1003.4 13.0 S 21.3 0.0 5.7
06:25 10.3 10.2 99 1003.3 19.0 S 19.7 0.8 5.7
06:26 10.3 10.2 99 1003.4 19.0 S 19.7 0.8 5.7
06:27 10.3 10.2 99 1003.3 15.9 S 19.0 0.8 5.7
06:28 10.3 10.2 99 1003.1 15.2 WSW 19.0 0.8 5.7
06:29 10.3 10.2 99 1003.1 15.2 W 19.0 0.8 5.7
06:30 10.3 10.2 99 1003.0 17.4 WSW 19.0 0.0 5.7
06:31 10.3 10.2 99 1003.0 22.1 WSW 22.1 0.0 5.7
06:33 10.2 10.1 99 1003.1 12.1 S 22.1 0.0 5.7
06:34 10.3 10.2 99 1002.9 17.4 S 22.1 0.0 5.7
06:35 10.3 10.2 99 1003.0 14.5 N 22.1 0.0 5.7
06:36 10.3 10.2 99 1003.0 18.3 S 22.1 0.0 5.7
06:37 10.3 10.2 99 1002.9 14.5 S 22.1 0.0 5.7
06:38 10.3 10.2 99 1002.8 15.2 S 22.1 0.0 5.8
06:39 10.2 10.1 99 1002.8 13.6 S 22.1 0.8 5.8
06:40 10.3 10.2 99 1002.7 17.4 WSW 22.1 0.8 5.8
06:41 10.3 10.2 99 1002.7 20.6 S 22.1 0.8 5.8
06:42 10.3 10.2 99 1002.8 16.8 WSW 20.6 0.8 5.8
06:43 10.3 10.2 99 1002.6 17.4 WSW 20.6 0.8 5.8
06:44 10.3 10.2 99 1002.7 16.8 S 20.6 0.0 5.8
06:45 10.3 10.2 99 1002.6 15.2 S 20.6 0.0 5.8
06:47 10.3 10.2 99 1002.5 16.8 WSW 20.6 0.0 5.8
06:48 10.3 10.2 99 1002.6 17.4 S 20.6 0.0 5.8
06:49 10.2 10.1 99 1002.6 14.5 S 20.6 0.0 5.8
06:50 10.2 10.1 99 1002.6 13.6 WSW 20.6 0.0 5.8
06:51 10.3 10.2 99 1002.5 17.4 WSW 20.6 0.0 5.8
06:52 10.2 10.1 99 1002.4 15.9 WSW 17.4 0.0 5.8
06:53 10.3 10.2 99 1002.3 13.6 WSW 17.4 0.0 5.8
06:54 10.2 10.1 99 1002.2 22.1 WSW 22.1 0.0 5.8
06:55 10.2 10.1 99 1002.1 13.0 W 22.1 0.0 5.9
06:56 10.2 10.1 99 1002.1 12.1 S 22.1 0.8 5.9
06:57 10.2 10.1 99 1002.0 12.1 WSW 22.1 0.8 5.9
06:58 10.2 10.1 99 1002.0 14.5 WSW 22.1 0.8 5.9
07:00 10.3 10.2 99 1001.9 20.6 WSW 22.1 1.5 5.9
07:01 10.3 10.2 99 1002.0 20.6 WSW 22.1 0.8 5.9
07:02 10.3 10.2 99 1002.0 20.6 WSW 22.1 0.8 5.9
07:03 10.3 10.2 99 1002.0 20.6 WSW 22.1 0.8 5.9
07:04 10.3 10.2 99 1002.1 20.6 WSW 22.1 0.8 5.9
07:05 10.3 10.2 99 1002.0 20.6 WSW 20.6 0.0 5.9
07:06 10.2 10.1 99 1001.8 17.4 WSW 20.6 0.0 6.0
07:07 10.2 10.1 99 1001.8 14.5 WSW 20.6 0.8 6.0
07:08 10.2 10.1 99 1001.7 12.1 WSW 20.6 0.8 6.0
07:09 10.2 10.1 99 1001.6 15.9 WSW 20.6 0.8 6.0
07:10 10.2 10.1 99 1001.6 20.6 S 20.6 0.8 6.0
07:11 10.2 10.1 99 1001.5 16.8 WSW 20.6 0.8 6.0
07:12 10.2 10.1 99 1001.7 19.7 WSW 20.6 0.0 6.0
07:13 10.2 10.1 99 1001.6 15.2 S 20.6 0.0 6.0
07:15 10.2 10.1 99 1001.5 19.0 S 20.6 0.8 6.0
07:16 10.2 10.1 99 1001.7 15.9 S 20.6 0.8 6.0
07:17 10.3 10.2 99 1001.7 15.9 S 20.6 0.8 6.0
07:18 10.2 10.1 99 1001.7 15.9 WSW 20.6 0.8 6.0
07:19 10.3 10.2 99 1001.7 18.3 WSW 20.6 0.0 6.0
07:20 10.3 10.2 99 1001.5 15.2 S 20.6 0.0 6.0
07:21 10.2 10.1 99 1001.6 15.9 WSW 19.7 0.0 6.0
07:22 10.2 10.1 99 1001.6 22.1 S 22.1 0.0 6.1
07:23 10.2 10.1 99 1001.7 20.6 S 22.1 0.8 6.1
07:24 10.2 10.1 99 1001.6 21.3 S 22.1 0.8 6.1
07:26 10.2 10.1 99 1001.6 21.3 WSW 22.8 0.8 6.1
07:27 10.2 10.1 99 1001.6 20.6 WSW 22.8 0.8 6.1
07:28 10.3 10.2 99 1001.4 20.6 NNW 22.8 0.8 6.2
07:29 10.3 10.2 99 1001.5 15.2 WSW 22.8 0.8 6.2
07:31 10.3 10.2 99 1001.7 16.8 WSW 22.8 2.3 6.3
07:32 10.3 10.2 99 1001.6 17.4 S 22.8 2.3 6.3
07:33 10.3 10.2 99 1001.7 21.3 WSW 22.8 1.5 6.3
07:34 10.3 10.2 99 1001.5 15.9 WSW 22.8 1.5 6.4
07:36 10.3 10.2 99 1001.4 23.5 WSW 23.5 0.8 6.4
07:37 10.3 10.2 99 1001.6 20.6 N 23.5 1.5 6.4
07:39 10.3 10.2 99 1001.7 20.6 WSW 23.5 2.3 6.5
07:40 10.3 10.2 99 1001.7 13.6 WSW 23.5 1.5 6.6
07:41 10.3 10.2 99 1001.5 18.3 WSW 23.5 2.3 6.6
07:42 10.3 10.2 99 1001.5 21.3 WSW 23.5 1.5 6.6
07:43 10.3 10.2 99 1001.5 16.8 S 23.5 2.3 6.6
07:45 10.3 10.2 99 1001.4 19.0 WSW 23.5 2.3 6.7
07:46 10.3 10.2 99 1001.4 19.0 S 21.3 1.5 6.7
07:47 10.3 10.2 99 1001.6 13.6 WSW 21.3 2.3 6.7
07:48 10.3 10.2 99 1001.5 18.3 S 21.3 1.5 6.7
07:49 10.3 10.2 99 1001.4 23.5 WSW 23.5 1.5 6.7
07:50 10.3 10.2 99 1001.6 19.7 WSW 23.5 0.8 6.8
07:51 10.3 10.2 99 1001.7 18.3 S 23.5 1.5 6.8
07:52 10.3 10.2 99 1001.4 18.3 WSW 23.5 0.8 6.8
07:53 10.3 10.2 99 1001.5 15.2 WSW 23.5 0.8 6.8
07:54 10.3 10.2 99 1001.3 20.6 WSW 23.5 0.8 6.9
07:55 10.3 10.2 99 1001.4 19.0 WSW 23.5 1.5 6.9
07:56 10.3 10.2 99 1001.2 19.7 W 23.5 0.8 6.9
07:57 10.3 10.2 99 1001.4 16.8 WSW 23.5 0.8 6.9
07:58 10.3 10.2 99 1001.5 22.1 WSW 23.5 0.8 6.9
07:59 10.3 10.2 99 1001.3 18.3 WSW 23.5 1.5 6.9
08:00 10.4 10.3 99 1001.4 20.6 WSW 22.1 0.8 6.9
08:01 10.4 10.3 99 1001.4 20.6 WSW 22.1 0.8 6.9
08:02 10.3 10.2 99 1001.5 20.6 S 22.1 0.8 6.9
08:03 10.3 10.2 99 1001.3 15.9 WSW 22.1 0.8 6.9
08:04 10.3 10.2 99 1001.4 19.0 WSW 22.1 0.0 7.0
08:05 10.3 10.2 99 1001.2 18.3 WSW 22.1 0.8 7.0
08:06 10.4 10.3 99 1001.2 19.7 WSW 22.1 0.8 7.0
08:07 10.3 10.2 99 1001.2 20.6 WSW 22.1 0.8 7.0
08:08 10.3 10.2 99 1001.3 15.2 WSW 20.6 0.8 7.0
08:10 10.3 10.2 99 1001.1 17.4 WSW 20.6 0.0 7.0
08:11 10.3 10.2 99 1001.1 25.1 NW 25.1 0.0 7.1
08:13 10.3 10.2 99 1000.9 15.9 WSW 25.1 0.8 7.1
08:14 10.3 10.2 99 1001.1 21.3 WSW 25.1 1.5 7.1
08:16 10.4 10.3 99 1001.2 18.3 S 25.1 1.5 7.1
08:17 10.4 10.3 99 1001.2 19.0 W 25.1 0.8 7.1
08:18 10.4 10.3 99 1001.1 25.1 S 25.1 0.8 7.1
08:19 10.3 10.2 99 1001.0 22.8 S 25.1 0.0 7.1
08:20 10.4 10.3 99 1001.1 22.8 WSW 25.1 0.0 7.1
08:21 10.4 10.3 99 1001.0 19.0 WSW 25.1 0.0 7.1
08:22 10.4 10.3 99 1001.1 14.5 NW 25.1 0.0 7.1
08:23 10.4 10.3 99 1001.2 23.5 WSW 25.1 0.0 7.1
08:24 10.4 10.3 99 1001.0 24.4 WSW 25.1 0.0 7.1
08:25 10.4 10.3 99 1001.2 20.6 WSW 25.1 0.0 7.1
08:26 10.4 10.3 99 1001.2 21.3 N 25.1 0.0 7.1
08:27 10.4 10.3 99 1001.2 21.3 S 25.1 0.0 7.1
08:28 10.4 10.3 99 1001.2 19.7 WSW 24.4 0.8 7.2
08:29 10.4 10.3 99 1001.2 22.8 WSW 24.4 0.8 7.2
08:30 10.4 10.3 99 1001.0 19.7 WSW 24.4 0.8 7.2
08:31 10.4 10.3 99 1001.2 18.3 NW 24.4 0.8 7.2
08:32 10.4 10.3 99 1001.2 15.9 S 24.4 0.8 7.2
08:33 10.4 10.3 99 1001.2 16.8 WSW 24.4 0.0 7.2
08:34 10.4 10.3 99 1001.3 19.7 WSW 22.8 0.0 7.2
08:35 10.4 10.3 99 1001.2 18.3 S 22.8 0.0 7.2
08:36 10.4 10.3 99 1001.2 17.4 WSW 22.8 0.0 7.2
08:37 10.4 10.3 99 1001.2 23.5 W 23.5 0.0 7.2
08:38 10.4 10.3 99 1001.2 18.3 WSW 24.4 0.0 7.2
08:39 10.4 10.3 99 1001.0 21.3 NW 24.4 0.0 7.2
08:40 10.4 10.3 99 1001.2 20.6 WSW 24.4 0.8 7.2
08:41 10.4 10.3 99 1001.2 17.4 WSW 24.4 0.8 7.2
08:42 10.4 10.3 99 1001.1 22.1 WSW 31.1 0.8 7.2
08:43 10.4 10.3 99 1001.1 19.7 WSW 31.1 0.8 7.2
08:44 10.4 10.3 99 1001.2 19.0 SW 31.1 0.8 7.2
08:45 10.4 10.3 99 1001.1 19.0 WSW 31.1 0.0 7.2
08:46 10.4 10.3 99 1001.2 18.3 WSW 31.1 0.0 7.3
08:47 10.4 10.3 99 1001.3 15.9 WSW 31.1 0.8 7.3
08:48 10.4 10.3 99 1001.2 22.1 WSW 31.1 0.8 7.3
08:49 10.5 10.4 99 1001.3 20.6 NW 31.1 0.8 7.3
08:50 10.4 10.3 99 1001.4 19.0 WSW 31.1 0.8 7.3
08:52 10.4 10.3 99 1001.4 13.6 N 31.1 0.0 7.3
08:53 10.5 10.4 99 1001.1 28.9 WSW 28.9 0.0 7.3
08:54 10.4 10.3 99 1001.1 23.5 S 28.9 0.0 7.3
08:55 10.5 10.4 99 1001.1 19.0 WSW 28.9 0.0 7.3
08:56 10.5 10.4 99 1001.0 16.8 WSW 28.9 0.0 7.3
08:57 10.5 10.4 99 1000.9 18.3 NNW 28.9 0.0 7.3
08:58 10.5 10.4 99 1000.8 15.9 WSW 28.9 0.0 7.3
08:59 10.5 10.4 99 1001.0 19.7 WSW 28.9 0.0 7.3
09:00 10.5 10.4 99 1001.0 28.9 WSW 28.9 0.0 7.3
09:01 10.5 10.4 99 1001.1 28.9 WSW 28.9 0.0 7.3
09:02 10.5 10.4 99 1001.0 28.9 WSW 28.9 0.0 7.3
09:03 10.5 10.4 99 1001.0 28.9 WSW 28.9 0.0 7.3
09:04 10.5 10.4 99 1001.1 28.9 WSW 28.9 0.0 7.3
09:05 10.5 10.4 99 1001.0 28.9 WSW 28.9 0.0 7.3
09:06 10.5 10.4 99 1001.1 25.1 WSW 28.9 0.0 7.4
09:07 10.5 10.4 99 1001.2 22.1 WSW 28.9 0.8 7.4
09:08 10.5 10.4 99 1000.8 26.6 S 28.9 1.5 7.4
09:09 10.5 10.4 99 1001.0 23.5 WSW 28.9 1.5 7.4
09:10 10.5 10.4 99 1001.2 20.6 WNW 28.9 1.5 7.4
09:11 10.6 10.5 99 1001.0 14.5 S 28.9 1.5 7.4
09:12 10.5 10.4 99 1001.2 24.4 NE 28.9 0.8 7.4
09:13 10.6 10.5 99 1000.9 17.4 WNW 28.9 0.0 7.4
09:14 10.5 10.4 99 1001.0 28.2 WSW 28.9 0.0 7.4
09:15 10.6 10.5 99 1001.1 23.5 WSW 28.2 0.0 7.4
09:16 10.5 10.4 99 1000.8 26.6 WSW 28.2 0.0 7.4
09:17 10.5 10.4 99 1001.1 25.9 WNW 28.2 0.0 7.4
09:18 10.6 10.5 99 1000.9 25.1 WSW 32.7 0.0 7.4
09:19 10.6 10.5 99 1000.8 26.6 WSW 32.7 0.0 7.4
09:20 10.6 10.5 99 1000.8 17.4 S 32.7 0.0 7.4
09:21 10.6 10.5 99 1000.9 26.6 WSW 32.7 0.0 7.4
09:22 10.6 10.5 99 1001.0 20.6 WSW 32.7 0.0 7.4
09:23 10.6 10.5 99 1000.7 22.1 NW 32.7 0.0 7.4
09:24 10.6 10.5 99 1001.2 22.8 WSW 32.7 0.0 7.4
09:25 10.6 10.5 99 1001.1 18.3 S 32.7 0.0 7.4
09:26 10.6 10.5 99 1001.1 18.3 WNW 32.7 0.0 7.4
09:27 10.6 10.5 99 1000.9 22.1 WSW 32.7 0.0 7.4
09:28 10.6 10.5 99 1001.2 25.9 W 26.6 0.0 7.4
09:29 10.6 10.5 99 1000.9 25.1 W 26.6 0.0 7.4
09:30 10.6 10.5 99 1001.2 19.0 WSW 26.6 0.0 7.4
09:31 10.6 10.5 99 1001.2 28.2 WSW 28.2 0.0 7.4
09:32 10.6 10.5 99 1001.2 22.8 WSW 28.2 0.0 7.4
09:33 10.6 10.5 99 1001.2 25.1 WSW 28.2 0.0 7.4
09:34 10.6 10.5 99 1001.2 20.6 W 28.2 0.0 7.4
09:35 10.6 10.5 99 1001.1 22.1 W 28.2 0.0 7.4
09:36 10.5 10.4 99 1001.2 25.1 W 28.2 0.0 7.4
09:38 10.5 10.4 99 1001.3 21.3 W 28.2 0.0 7.4
09:39 10.5 10.4 99 1001.2 25.1 WSW 28.2 0.0 7.4
09:40 10.5 10.4 99 1001.3 22.8 WSW 28.2 0.0 7.4
09:41 10.5 10.4 99 1001.4 24.4 WSW 28.2 0.0 7.4
09:42 10.5 10.4 99 1001.2 30.4 WSW 30.4 0.0 7.5
09:43 10.5 10.4 99 1001.0 28.2 WSW 30.4 0.8 7.5
09:44 10.5 10.4 99 1001.3 24.4 WSW 30.4 0.8 7.5
09:45 10.5 10.4 99 1001.2 22.1 S 30.4 0.8 7.5
09:46 10.5 10.4 99 1001.2 21.3 NW 30.4 0.8 7.5
09:47 10.5 10.4 99 1001.3 25.1 NW 30.4 0.8 7.5
09:48 10.5 10.4 99 1001.2 25.1 W 30.4 0.0 7.5
09:49 10.5 10.4 99 1001.2 22.1 WSW 30.4 0.0 7.5
09:50 10.5 10.4 99 1001.3 25.1 WSW 30.4 0.0 7.5
09:51 10.5 10.4 99 1001.4 21.3 WSW 30.4 0.0 7.5
09:52 10.5 10.4 99 1001.2 19.0 NW 30.4 0.0 7.5
09:53 10.4 10.3 99 1001.2 17.4 W 28.2 0.0 7.5
09:54 10.5 10.4 99 1001.2 21.3 WSW 25.1 0.0 7.5
09:55 10.5 10.4 99 1001.1 21.3 WNW 25.1 0.0 7.5
09:56 10.5 10.4 99 1001.2 17.4 WSW 25.1 0.0 7.5
09:57 10.4 10.3 99 1001.1 22.1 WSW 25.1 0.0 7.5
09:58 10.4 10.3 99 1001.2 21.3 WSW 25.1 0.0 7.5
09:59 10.4 10.3 99 1000.9 22.1 WSW 25.1 0.0 7.5
10:00 10.4 10.3 99 1001.0 22.1 WSW 23.5 0.0 7.5
10:01 10.4 10.3 99 1001.0 22.1 WSW 23.5 0.0 7.5
10:02 10.4 10.3 99 1000.9 21.3 WSW 23.5 0.0 7.5
10:03 10.4 10.3 99 1001.2 16.8 S 23.5 0.0 7.5
10:04 10.4 10.3 99 1001.0 15.9 S 23.5 0.0 7.5
10:05 10.4 10.3 99 1001.0 23.5 WSW 23.5 0.0 7.5
10:06 10.4 10.3 99 1001.3 22.1 WSW 23.5 0.0 7.5
10:07 10.4 10.3 99 1001.1 20.6 WSW 23.5 0.0 7.5
10:09 10.4 10.3 99 1001.2 21.3 S 23.5 0.0 7.5
10:10 10.4 10.3 99 1001.1 21.3 WSW 23.5 0.0 7.5
10:12 10.4 10.3 99 1001.1 20.6 W 28.2 0.0 7.5
10:13 10.4 10.3 99 1001.3 20.6 WSW 28.2 0.0 7.5
10:14 10.4 10.3 99 1001.1 20.6 NNW 28.2 0.0 7.5
10:16 10.4 10.3 99 1001.1 27.3 NW 28.2 0.0 7.5
10:18 10.4 10.3 99 1001.0 18.3 NNW 28.9 0.0 7.5
10:19 10.4 10.3 99 1000.9 19.0 WSW 28.9 0.0 7.5
10:20 10.4 10.3 99 1001.0 17.4 NW 28.9 0.0 7.5
10:21 10.4 10.3 99 1001.0 15.9 WSW 28.9 0.0 7.5
10:22 10.4 10.3 99 1000.9 17.4 WSW 28.9 0.0 7.5
10:23 10.4 10.3 99 1001.1 22.1 WSW 28.9 0.0 7.5
10:24 10.4 10.3 99 1001.0 20.6 WSW 28.9 0.0 7.5
10:25 10.4 10.3 99 1001.0 21.3 NW 28.9 0.0 7.5
10:26 10.4 10.3 99 1001.2 16.8 WSW 28.9 0.0 7.5
10:27 10.4 10.3 99 1001.1 14.5 WSW 22.1 0.0 7.5
10:28 10.4 10.3 99 1001.2 17.4 WSW 22.1 0.0 7.5
10:29 10.4 10.3 99 1001.2 18.3 WSW 22.1 0.0 7.5
10:30 10.4 10.3 99 1001.1 25.9 WSW 25.9 0.0 7.5
10:31 10.4 10.3 99 1000.8 29.8 NNW 29.8 0.0 7.5
10:32 10.4 10.3 99 1001.2 25.9 WNW 29.8 0.0 7.5
10:34 10.4 10.3 99 1001.2 21.3 WSW 29.8 0.0 7.5
10:35 10.4 10.3 99 1000.8 19.0 WSW 29.8 0.0 7.5
10:36 10.4 10.3 99 1000.9 19.0 WSW 29.8 0.0 7.5
10:37 10.4 10.3 99 1000.8 15.9 WSW 29.8 0.0 7.5
10:38 10.4 10.3 99 1000.9 24.4 WSW 29.8 0.0 7.5
10:39 10.4 10.3 99 1000.8 23.5 W 29.8 0.0 7.5
10:40 10.4 10.3 99 1000.9 22.8 WSW 29.8 0.0 7.5
10:41 10.4 10.3 99 1000.9 22.8 WSW 29.8 0.0 7.5
10:42 10.4 10.3 99 1001.0 22.1 W 25.9 0.0 7.5
10:43 10.4 10.3 99 1000.9 21.3 WSW 24.4 0.0 7.5
10:44 10.4 10.3 99 1000.9 22.8 W 24.4 0.0 7.5
10:45 10.4 10.3 99 1000.8 24.4 SW 24.4 0.0 7.5
10:46 10.4 10.3 99 1000.8 22.8 W 24.4 0.0 7.5
10:47 10.3 10.2 99 1001.0 15.2 N 24.4 0.0 7.5
10:48 10.3 10.2 99 1001.0 25.1 NW 25.1 0.0 7.5
10:49 10.3 10.2 99 1000.8 19.7 WSW 25.1 0.0 7.5
10:50 10.3 10.2 99 1001.0 13.0 WSW 25.1 0.0 7.5
10:51 10.3 10.2 99 1001.0 19.0 WSW 25.1 0.0 7.5
10:52 10.3 10.2 99 1000.8 23.5 W 25.1 0.0 7.5
10:53 10.4 10.3 99 1001.0 18.3 WSW 25.1 0.0 7.5
10:54 10.4 10.3 99 1000.9 19.7 WSW 25.1 0.0 7.5
10:55 10.4 10.3 99 1000.9 18.3 W 25.1 0.0 7.5
10:56 10.4 10.3 99 1000.9 19.7 S 25.1 0.0 7.5
10:57 10.4 10.3 99 1001.0 16.8 WSW 25.1 0.0 7.5
10:58 10.4 10.3 99 1000.9 22.1 W 23.5 0.0 7.5
10:59 10.4 10.3 99 1001.0 22.8 WSW 23.5 0.0 7.5
11:00 10.4 10.3 99 1001.0 22.8 WSW 23.5 0.0 7.5
11:01 10.4 10.3 99 1001.2 22.8 WSW 23.5 0.0 7.5
11:02 10.4 10.3 99 1001.1 22.8 WSW 22.8 0.0 7.5
11:03 10.4 10.3 99 1001.1 22.8 WSW 22.8 0.0 7.5
11:04 10.4 10.3 99 1000.9 23.5 W 23.5 0.0 7.5
11:05 10.4 10.3 99 1001.1 24.4 N 24.4 0.0 7.5
11:06 10.4 10.3 99 1001.1 19.0 NW 24.4 0.0 7.5
11:08 10.4 10.3 99 1001.0 22.1 W 24.4 0.0 7.5
11:09 10.4 10.3 99 1000.9 21.3 S 24.4 0.0 7.5
11:10 10.4 10.3 99 1000.7 19.7 WSW 24.4 0.0 7.5
11:11 10.4 10.3 99 1000.6 28.9 WSW 28.9 0.0 7.5
11:12 10.4 10.3 99 1000.8 28.2 W 28.9 0.0 7.5
11:13 10.4 10.3 99 1000.8 22.1 W 28.9 0.0 7.5
11:14 10.4 10.3 99 1000.8 22.8 W 28.9 0.0 7.5
11:15 10.4 10.3 99 1000.9 21.3 W 28.9 0.0 7.5
11:16 10.4 10.3 99 1000.7 21.3 WSW 28.9 0.0 7.5
11:17 10.3 10.2 99 1000.7 19.7 WSW 28.9 0.0 7.5
11:18 10.4 10.3 99 1001.0 25.1 WSW 28.9 0.0 7.5
11:19 10.4 10.3 99 1000.8 22.8 N 28.9 0.0 7.5
11:20 10.3 10.2 99 1000.9 25.1 WSW 28.9 0.0 7.5
11:21 10.4 10.3 99 1000.7 25.9 WSW 28.9 0.0 7.5
11:22 10.4 10.3 99 1000.8 21.3 W 25.9 0.0 7.5
11:23 10.4 10.3 99 1000.8 19.0 WSW 25.9 0.0 7.5
11:24 10.4 10.3 99 1000.8 17.4 WSW 25.9 0.0 7.5
11:25 10.3 10.2 99 1000.9 19.7 WSW 25.9 0.0 7.5
11:26 10.3 10.2 99 1000.9 22.1 W 25.9 0.0 7.5
11:27 10.3 10.2 99 1000.9 22.1 W 25.9 0.0 7.5
11:28 10.3 10.2 99 1001.1 21.3 W 25.9 0.0 7.5
11:29 10.3 10.2 99 1000.9 19.0 WNW 25.9 0.0 7.5
11:30 10.3 10.2 99 1000.8 23.5 W 25.9 0.0 7.5
11:31 10.3 10.2 99 1001.0 21.3 WSW 25.9 0.0 7.5
11:32 10.3 10.2 99 1000.8 19.7 N 23.5 0.0 7.5
11:33 10.3 10.2 99 1000.9 18.3 N 23.5 0.0 7.5
11:34 10.3 10.2 99 1000.7 15.2 WNW 23.5 0.0 7.5
11:35 10.3 10.2 99 1000.7 21.3 W 23.5 0.0 7.5
11:36 10.3 10.2 99 1000.9 16.8 WSW 23.5 0.0 7.5
11:37 10.3 10.2 99 1000.7 19.0 WSW 23.5 0.0 7.5
11:38 10.3 10.2 99 1000.8 21.3 W 23.5 0.0 7.5
11:39 10.2 10.1 99 1001.0 18.3 S 23.5 0.0 7.5
11:40 10.2 10.1 99 1000.7 25.1 W 25.1 0.0 7.5
11:41 10.2 10.1 99 1000.7 23.5 S 25.1 0.0 7.5
11:42 10.2 10.1 99 1000.7 19.0 WSW 25.1 0.0 7.5
11:43 10.2 10.1 99 1001.1 19.7 WSW 25.1 0.0 7.5
11:44 10.2 10.1 99 1000.9 15.9 WSW 25.1 0.0 7.5
11:45 10.2 10.1 99 1000.9 21.3 W 25.1 0.0 7.5
11:46 10.2 10.1 99 1000.9 25.9 W 25.9 0.0 7.5
11:47 10.3 10.2 99 1000.8 20.6 N 25.9 0.0 7.5
11:48 10.2 10.1 99 1000.6 19.7 N 25.9 0.0 7.5
11:49 10.2 10.1 99 1000.7 22.8 W 25.9 0.0 7.5
11:50 10.2 10.1 99 1000.4 23.5 NW 25.9 0.0 7.5
11:51 10.2 10.1 99 1000.7 22.8 W 25.9 0.0 7.5
11:52 10.2 10.1 99 1000.7 18.3 W 25.9 0.0 7.5
11:53 10.2 10.1 99 1000.5 18.3 WNW 25.9 0.0 7.5
11:54 10.2 10.1 99 1000.4 23.5 SW 25.9 0.0 7.5
11:55 10.2 10.1 99 1000.7 16.8 SW 25.9 0.0 7.5
11:57 10.2 10.1 99 1000.6 17.4 W 23.5 0.0 7.5
11:58 10.1 10.0 99 1000.6 15.2 SW 23.5 0.0 7.5
11:59 10.1 10.0 99 1000.8 18.3 SW 23.5 0.0 7.5
12:00 10.1 10.0 99 1000.7 18.3 S 23.5 0.0 7.5
12:01 10.1 10.0 99 1000.7 18.3 S 23.5 0.0 7.5
12:02 10.1 10.0 99 1000.8 19.7 NW 23.5 0.0 7.5
12:03 10.1 10.0 99 1000.8 21.3 S 23.5 0.0 7.5
12:04 10.1 10.0 99 1000.7 18.3 SW 23.5 0.0 7.5
12:05 10.1 10.0 99 1000.8 15.2 SW 22.1 0.0 7.5
12:06 10.1 10.0 99 1000.8 20.6 SW 22.1 0.0 7.5
12:07 10.1 10.0 99 1000.8 19.7 SW 22.1 0.0 7.5
12:08 10.1 10.0 99 1000.9 15.9 W 22.1 0.0 7.5
12:10 10.1 10.0 99 1000.8 17.4 SW 22.8 0.0 7.5
12:11 10.1 10.0 99 1000.8 16.8 SW 22.8 0.0 7.5
12:12 10.1 10.0 99 1000.9 20.6 WNW 22.8 0.0 7.5
12:14 10.0 9.9 99 1001.0 19.7 SW 22.8 0.0 7.5
12:15 10.0 9.9 99 1000.9 21.3 W 22.8 0.0 7.5
12:17 10.0 9.9 99 1001.1 17.4 SW 22.8 0.0 7.5
12:19 10.0 9.9 99 1000.7 16.8 SW 22.8 0.0 7.5
12:20 10.0 9.9 99 1000.8 26.6 W 26.6 0.0 7.5
12:21 10.0 9.9 99 1000.9 25.9 SW 26.6 0.0 7.5
12:22 10.0 9.9 99 1001.0 24.4 SW 26.6 0.0 7.5
12:23 10.0 9.9 99 1000.8 27.3 SW 27.3 0.0 7.5
12:24 10.0 9.9 99 1000.8 15.9 SW 27.3 0.0 7.5
12:25 10.0 9.9 99 1000.9 17.4 SW 27.3 0.0 7.5
12:26 10.0 9.9 99 1000.9 20.6 NW 27.3 0.0 7.5
12:27 10.0 9.9 99 1000.7 21.3 SW 27.3 0.0 7.5
12:28 10.0 9.9 99 1000.8 25.9 SW 27.3 0.0 7.5
12:29 10.0 9.9 99 1000.9 23.5 W 27.3 0.0 7.5
12:30 10.0 9.9 99 1000.8 19.0 W 27.3 0.0 7.5
12:31 10.0 9.9 99 1000.9 20.6 SW 27.3 0.0 7.5
12:32 10.0 9.9 99 1001.0 24.4 SW 27.3 0.0 7.5
12:33 10.0 9.9 99 1000.9 23.5 SW 25.9 0.0 7.5
12:34 10.0 9.9 99 1001.0 14.5 SW 25.9 0.0 7.5
12:35 10.0 9.9 99 1000.8 23.5 SW 25.9 0.0 7.5
12:36 10.0 9.9 99 1001.0 14.5 W 25.9 0.0 7.5
12:37 10.0 9.9 99 1001.0 20.6 W 25.9 0.0 7.5
12:38 10.0 9.9 99 1000.8 12.1 NW 25.9 0.0 7.5
12:39 10.0 9.9 99 1000.8 17.4 NW 24.4 0.0 7.5
12:40 10.0 9.9 99 1000.7 21.3 SW 24.4 0.0 7.5
12:41 10.0 9.9 99 1000.8 23.5 W 24.4 0.0 7.5
12:42 10.0 9.9 99 1000.8 21.3 SW 24.4 0.0 7.5
12:43 10.0 9.9 99 1000.9 17.4 SW 23.5 0.0 7.5
12:44 10.0 9.9 99 1000.8 27.3 S 27.3 0.0 7.5
12:45 10.0 9.9 99 1000.9 23.5 SW 27.3 0.0 7.5
12:46 10.0 9.9 99 1000.9 28.9 SW 28.9 0.0 7.5
12:48 10.0 9.9 99 1000.9 22.1 W 28.9 0.0 7.5
12:49 10.0 9.9 99 1001.0 18.3 SW 28.9 0.0 7.5
12:50 10.0 9.9 99 1001.0 19.0 W 28.9 0.0 7.5
12:51 10.0 9.9 99 1000.9 23.5 SW 28.9 0.0 7.5
12:52 10.0 9.9 99 1000.7 20.6 SW 28.9 0.0 7.5
12:53 10.0 9.9 99 1000.7 13.6 SW 28.9 0.0 7.5
12:54 10.0 9.9 99 1000.7 16.8 SW 28.9 0.0 7.5
12:55 10.0 9.9 99 1000.6 16.8 SW 28.9 0.0 7.5
12:56 10.0 9.9 99 1000.6 17.4 W 28.9 0.0 7.5
12:57 10.0 9.9 99 1000.7 17.4 W 24.4 0.0 7.5
12:58 10.0 9.9 99 1000.8 20.6 SW 23.5 0.0 7.5
12:59 10.0 9.9 99 1000.7 21.3 SW 23.5 0.0 7.5
13:00 10.0 9.9 99 1000.7 22.8 SW 23.5 0.0 7.5
13:01 10.0 9.9 99 1000.8 22.8 SW 22.8 0.0 7.5
13:02 10.0 9.9 99 1000.6 22.8 SW 22.8 0.0 7.5
13:03 10.0 9.9 99 1000.9 22.8 SW 22.8 0.0 7.5
13:04 10.0 9.9 99 1000.8 24.4 SW 24.4 0.0 7.5
13:05 10.0 9.9 99 1000.8 22.8 W 24.4 0.0 7.5
13:06 10.0 9.9 99 1000.9 20.6 SW 24.4 0.0 7.5
13:07 10.0 9.9 99 1000.7 18.3 SW 24.4 0.0 7.5
13:08 10.0 9.9 99 1000.7 22.1 W 24.4 0.0 7.5
13:09 10.0 9.9 99 1000.7 22.1 W 24.4 0.0 7.5
13:10 9.9 9.8 99 1000.7 21.3 SW 24.4 0.0 7.5
13:11 9.9 9.8 99 1000.8 18.3 SW 24.4 0.0 7.5
13:12 9.9 9.8 99 1000.7 16.8 W 24.4 0.0 7.5
13:13 9.9 9.8 99 1000.9 22.1 NNW 24.4 0.0 7.5
13:14 9.9 9.8 99 1001.0 22.1 NNW 24.4 0.0 7.5
13:15 9.9 9.8 99 1001.0 26.6 SW 26.6 0.0 7.5
13:16 9.9 9.8 99 1000.8 26.6 SW 26.6 0.0 7.5
13:17 10.0 9.9 99 1000.8 24.4 W 26.6 0.0 7.5
13:19 10.0 9.9 99 1000.9 22.8 SW 26.6 0.0 7.5
13:20 10.0 9.9 99 1000.8 22.1 W 26.6 0.0 7.5
13:21 9.9 9.8 99 1000.9 25.9 W 26.6 0.0 7.5
13:22 9.9 9.8 99 1001.0 16.8 N 26.6 0.0 7.5
13:23 9.9 9.8 99 1000.9 25.9 SW 26.6 0.0 7.5
13:24 9.9 9.8 99 1001.0 22.8 SW 26.6 0.0 7.5
13:25 9.8 9.7 99 1000.9 19.7 SW 26.6 0.0 7.5
13:26 9.8 9.7 99 1000.9 19.0 SW 26.6 0.0 7.5
13:27 9.8 9.7 99 1000.9 15.2 SW 25.9 0.0 7.5
13:28 9.8 9.7 99 1000.8 12.1 NW 25.9 0.0 7.5
13:30 9.7 9.6 99 1000.9 21.3 W 25.9 0.0 7.5
13:32 9.7 9.6 99 1001.0 18.3 NW 25.9 0.0 7.5
13:33 9.6 9.5 99 1000.9 9.8 SW 25.9 0.0 7.5
13:34 9.7 9.6 99 1000.9 13.0 NW 23.5 0.0 7.6
13:35 9.6 9.5 99 1001.1 13.6 W 23.5 1.5 7.7
13:36 9.6 9.5 99 1000.7 13.0 NW 23.5 3.8 7.8
13:37 9.6 9.5 99 1000.9 15.2 NW 21.3 3.8 7.8
13:38 9.5 9.4 99 1000.9 21.3 W 21.3 3.8 7.9
13:39 9.5 9.4 99 1000.8 22.8 WNW 22.8 4.5 7.9
13:40 9.4 9.3 99 1000.8 25.9 W 26.6 4.5 8.1
13:41 9.3 9.2 99 1000.7 20.6 WNW 26.6 3.0 8.1
13:42 9.3 9.2 99 1000.7 20.6 SW 26.6 3.0 8.1
13:43 9.2 9.1 99 1000.7 22.1 SW 26.6 3.8 8.1
13:44 9.1 9.0 99 1000.8 24.4 W 26.6 3.8 8.2
13:45 9.1 9.0 99 1000.7 16.8 W 26.6 2.3 8.2
13:46 9.1 9.0 99 1000.7 14.5 W 26.6 1.5 8.2
13:47 9.0 8.9 99 1000.7 20.6 W 26.6 1.5 8.2
13:48 9.0 8.9 99 1000.8 13.6 W 26.6 0.8 8.2
13:49 9.0 8.9 99 1000.7 20.6 W 26.6 0.0 8.2
13:50 8.9 8.8 99 1000.7 15.2 NW 24.4 0.0 8.2
13:52 8.9 8.8 99 1000.7 23.5 NW 24.4 0.0 8.2
13:53 9.0 8.9 99 1000.9 11.4 NW 24.4 0.0 8.2
13:54 9.0 8.9 99 1000.8 13.6 N 23.5 0.0 8.2
13:55 9.0 8.9 99 1000.8 15.2 N 23.5 0.0 8.2
13:56 9.1 9.0 99 1000.7 16.8 N 23.5 0.0 8.2
13:57 9.1 9.0 99 1000.7 16.8 NW 23.5 0.0 8.2
13:58 9.2 9.1 99 1000.6 16.8 N 23.5 0.0 8.2
14:00 9.2 9.1 99 1000.4 18.3 WNW 23.5 0.0 8.2
14:01 9.2 9.1 99 1000.4 18.3 WNW 23.5 0.0 8.2
14:02 9.2 9.1 99 1000.6 13.6 SW 23.5 0.0 8.2
14:03 9.3 9.2 99 1000.6 15.2 NW 19.0 0.0 8.2
14:04 9.3 9.2 99 1000.5 16.8 SW 19.0 0.0 8.2
14:06 9.3 9.2 99 1000.6 14.5 SW 19.0 0.0 8.2
14:07 9.3 9.2 99 1000.5 16.8 NW 19.0 0.0 8.2
14:08 9.3 9.2 99 1000.6 15.2 SW 19.0 0.0 8.2
14:09 9.3 9.2 99 1000.4 22.8 NW 22.8 0.0 8.2
14:10 9.2 9.1 99 1000.5 21.3 W 22.8 0.0 8.2
14:11 9.3 9.2 99 1000.5 15.9 SW 22.8 0.0 8.2
14:13 9.3 9.2 99 1000.4 15.9 W 22.8 0.0 8.2
14:14 9.3 9.2 99 1000.6 21.3 SW 22.8 0.0 8.2
14:16 9.3 9.2 99 1000.6 27.3 SW 27.3 0.0 8.2
14:17 9.3 9.2 99 1000.8 15.9 SW 27.3 0.0 8.2
14:19 9.3 9.2 99 1000.8 14.5 SW 27.3 0.0 8.2
14:20 9.2 9.1 99 1000.7 13.6 SW 27.3 0.0 8.2
14:21 9.3 9.2 99 1000.8 25.1 W 27.3 0.0 8.2
14:22 9.3 9.2 99 1000.7 21.3 NW 27.3 0.0 8.2
14:23 9.2 9.1 99 1000.7 16.8 W 27.3 0.0 8.2
14:24 9.2 9.1 99 1000.5 22.8 SW 27.3 0.0 8.2
14:25 9.3 9.2 99 1000.4 25.1 W 27.3 0.0 8.2
14:27 9.3 9.2 99 1000.6 23.5 W 25.1 0.0 8.2
14:28 9.3 9.2 99 1000.5 13.6 W 25.1 0.0 8.2
14:29 9.3 9.2 99 1000.6 14.5 W 25.1 0.0 8.2
14:30 9.3 9.2 99 1000.7 13.0 W 25.1 0.0 8.2
14:31 9.3 9.2 99 1000.7 17.4 NW 25.1 0.0 8.2
14:32 9.3 9.2 99 1000.6 19.0 SW 25.1 0.0 8.2
14:33 9.3 9.2 99 1000.5 14.5 W 25.1 0.0 8.2
14:34 9.3 9.2 99 1000.7 14.5 SW 25.1 0.0 8.2
14:35 9.3 9.2 99 1000.5 17.4 SW 25.1 0.0 8.2
14:36 9.3 9.2 99 1000.5 19.7 SW 23.5 0.0 8.2
14:37 9.3 9.2 99 1000.6 24.4 SW 24.4 0.0 8.2
14:38 9.3 9.2 99 1000.5 19.7 W 24.4 0.0 8.2
14:39 9.3 9.2 99 1000.3 19.7 NW 24.4 0.0 8.2
14:40 9.3 9.2 99 1000.4 19.0 SW 24.4 0.0 8.2
14:41 9.3 9.2 99 1000.4 19.0 NW 24.4 0.0 8.2
14:42 9.3 9.2 99 1000.3 19.0 SW 24.4 0.0 8.2
14:43 9.2 9.1 99 1000.2 20.6 W 24.4 0.0 8.2
14:45 9.3 9.2 99 1000.4 22.8 SW 24.4 0.0 8.2
14:46 9.3 9.2 99 1000.3 17.4 NW 24.4 0.0 8.2
14:47 9.2 9.1 99 1000.3 25.9 SW 25.9 0.0 8.2
14:48 9.2 9.1 99 1000.4 19.7 SW 25.9 0.0 8.2
14:49 9.3 9.2 99 1000.7 20.6 S 25.9 0.0 8.2
14:50 9.2 9.1 99 1000.3 20.6 SW 25.9 0.0 8.2
14:51 9.2 9.1 99 1000.3 27.3 SW 27.3 0.0 8.2
14:52 9.2 9.1 99 1000.4 20.6 SW 28.9 0.0 8.2
14:53 9.3 9.2 99 1000.4 18.3 W 28.9 0.0 8.2
14:54 9.2 9.1 99 1000.2 19.7 SW 28.9 0.0 8.2
14:56 9.2 9.1 99 1000.3 20.6 NW 28.9 0.0 8.2
14:57 9.2 9.1 99 1000.2 18.3 NW 28.9 0.0 8.2
14:58 9.2 9.1 99 1000.3 17.4 SW 28.9 0.0 8.2
14:59 9.2 9.1 99 1000.4 26.6 W 28.9 0.0 8.2
15:01 9.2 9.1 99 1000.4 22.8 SW 28.9 0.0 8.2
15:03 9.2 9.1 99 1000.2 22.8 SW 26.6 0.0 8.2
15:05 9.2 9.1 99 1000.2 20.6 W 26.6 0.0 8.2
15:07 9.2 9.1 99 1000.3 25.1 SW 26.6 0.0 8.2
15:09 9.2 9.1 99 1000.2 16.8 W 26.6 0.0 8.2
15:10 9.2 9.1 99 1000.3 22.8 NW 25.1 0.0 8.2
15:13 9.1 9.0 99 1000.3 16.8 SW 25.1 0.0 8.2
15:15 9.1 9.0 99 1000.3 13.6 SW 25.1 0.0 8.2
15:16 9.1 9.0 99 1000.2 22.8 SW 25.1 0.0 8.2
15:18 9.0 8.9 99 1000.2 22.1 SW 22.8 0.0 8.2
15:21 9.1 9.0 99 1000.4 19.7 SW 22.8 0.0 8.2
15:22 9.0 8.9 99 1000.4 18.3 W 22.8 0.0 8.2
15:24 9.0 8.9 99 1000.4 17.4 SW 22.8 0.0 8.2
15:26 9.0 8.9 99 1000.4 19.0 SW 22.8 0.0 8.2
15:28 9.0 8.9 99 1000.5 14.5 NW 22.1 0.0 8.2
15:30 9.0 8.9 99 1000.5 18.3 SW 21.3 0.0 8.2
15:32 8.9 8.8 99 1000.3 18.3 SW 22.8 0.0 8.2
15:34 8.9 8.8 99 1000.5 18.3 SW 22.8 0.0 8.2
15:36 8.9 8.8 99 1000.4 24.4 SW 24.4 0.0 8.2
15:38 8.9 8.8 99 1000.4 20.6 W 24.4 0.0 8.2
15:39 8.9 8.8 99 1000.5 15.9 SW 24.4 0.0 8.2
15:42 8.9 8.8 99 1000.7 19.0 N 24.4 0.0 8.2
15:43 8.9 8.8 99 1000.6 27.3 NW 27.3 0.0 8.2
15:45 8.9 8.8 99 1000.5 18.3 W 27.3 0.0 8.2
15:47 8.9 8.8 99 1000.6 20.6 SW 27.3 0.0 8.2
15:49 8.9 8.8 99 1000.7 17.4 SW 27.3 0.0 8.2
15:50 8.9 8.8 99 1000.2 23.5 W 27.3 0.0 8.2
15:52 8.9 8.8 99 1000.4 16.8 SW 27.3 0.0 8.2
15:55 8.9 8.8 99 1000.3 15.9 SW 25.1 0.0 8.2
15:57 8.9 8.8 99 1000.5 13.0 NW 23.5 0.0 8.2
15:59 8.9 8.8 99 1000.4 15.2 SW 23.5 0.0 8.2
16:00 8.9 8.8 99 1000.5 19.7 SW 22.8 0.0 8.2
16:02 8.9 8.8 99 1000.5 15.2 SW 22.8 0.0 8.2
16:04 8.9 8.8 99 1000.6 15.9 S 19.7 0.0 8.2
16:06 8.9 8.8 99 1000.4 16.8 SW 19.7 0.0 8.2
16:08 8.9 8.8 99 1000.2 15.9 W 19.7 0.0 8.2
16:10 8.9 8.8 99 1000.5 18.3 SW 19.7 0.0 8.2
16:12 8.9 8.8 99 1000.3 17.4 W 19.0 0.0 8.2
16:14 8.9 8.8 99 1000.5 13.0 SW 19.0 0.0 8.2
16:16 9.0 8.9 99 1000.2 19.0 SW 19.0 0.0 8.2
16:18 8.9 8.8 99 1000.4 20.6 W 20.6 0.0 8.2
16:19 8.9 8.8 99 1000.5 24.4 NW 24.4 0.0 8.2
16:21 8.9 8.8 99 1000.6 17.4 SW 24.4 0.0 8.2
16:22 8.9 8.8 99 1000.6 13.0 SW 24.4 0.0 8.3
16:24 8.9 8.8 99 1001.0 13.0 SW 24.4 0.8 8.3
16:25 8.9 8.8 99 1000.7 15.9 W 24.4 0.8 8.3
16:27 8.8 8.7 99 1000.8 15.2 SW 24.4 1.5 8.3
16:28 8.8 8.7 99 1000.6 13.0 SE 24.4 0.8 8.3
16:29 8.8 8.7 99 1000.7 19.0 SW 19.7 0.8 8.3
16:30 8.8 8.7 99 1000.7 19.0 SW 19.7 0.8 8.3
16:31 8.8 8.7 99 1000.7 15.9 W 19.7 0.8 8.3
16:32 8.8 8.7 99 1000.7 13.6 W 19.7 0.0 8.3
16:34 8.8 8.7 99 1000.8 15.2 N 19.7 0.0 8.3
16:35 8.8 8.7 99 1000.7 15.9 N 19.7 0.0 8.3
16:36 8.8 8.7 99 1000.6 16.8 W 19.7 0.0 8.3
16:37 8.7 8.6 99 1000.7 14.5 W 19.7 0.0 8.3
16:38 8.7 8.6 99 1000.6 13.6 W 19.0 0.0 8.3
16:39 8.7 8.6 99 1000.7 13.6 W 19.0 0.0 8.3
16:41 8.7 8.6 99 1000.7 15.9 W 16.8 0.0 8.3
16:42 8.7 8.6 99 1000.8 12.1 W 19.0 0.0 8.3
16:43 8.7 8.6 99 1000.7 20.6 N 20.6 0.0 8.3
16:44 8.7 8.6 99 1000.7 22.8 N 22.8 0.0 8.3
16:45 8.7 8.6 99 1000.7 21.3 N 22.8 0.0 8.3
16:46 8.7 8.6 99 1000.9 20.6 N 22.8 0.0 8.3
16:47 8.7 8.6 99 1000.7 19.0 N 22.8 0.0 8.3
16:48 8.7 8.6 99 1000.7 17.4 N 22.8 0.0 8.3
16:49 8.7 8.6 99 1000.7 13.6 N 22.8 0.0 8.3
16:50 8.7 8.6 99 1000.7 18.3 N 22.8 0.0 8.3
16:52 8.7 8.6 99 1000.7 17.4 SW 22.8 0.0 8.3
16:53 8.7 8.6 99 1000.8 19.7 SW 22.8 0.0 8.3
16:54 8.7 8.6 99 1000.7 15.9 SW 22.8 0.0 8.3
16:55 8.7 8.6 99 1000.6 16.8 SW 22.1 0.0 8.3
16:56 8.7 8.6 99 1000.7 15.2 SW 22.1 0.0 8.3
16:57 8.7 8.6 99 1000.7 15.9 S 22.1 0.0 8.3
16:58 8.7 8.6 99 1000.8 18.3 N 22.1 0.0 8.3
16:59 8.7 8.6 99 1000.6 18.3 NW 22.1 0.0 8.3
17:01 8.7 8.6 99 1000.6 18.3 NW 22.1 0.0 8.3
17:02 8.7 8.6 99 1000.6 18.3 NW 22.1 0.0 8.3
17:03 8.7 8.6 99 1000.5 19.0 NW 22.1 0.0 8.3
17:04 8.7 8.6 99 1000.6 16.8 W 19.0 0.0 8.3
17:05 8.7 8.6 99 1000.7 15.2 W 19.0 0.0 8.3
17:06 8.7 8.6 99 1000.7 18.3 N 19.0 0.0 8.3
17:07 8.7 8.6 99 1000.6 14.5 N 19.0 0.0 8.3
17:08 8.7 8.6 99 1000.5 17.4 N 19.0 0.0 8.3
17:09 8.7 8.6 99 1000.6 17.4 W 19.0 0.0 8.3
17:10 8.7 8.6 99 1000.6 17.4 W 19.0 0.0 8.3
17:12 8.7 8.6 99 1000.6 14.5 NW 19.0 0.0 8.3
17:13 8.7 8.6 99 1000.7 9.8 NW 19.0 0.0 8.3
17:14 8.7 8.6 99 1000.5 16.8 SW 18.3 0.0 8.3
17:15 8.7 8.6 99 1000.7 13.6 W 18.3 0.0 8.3
17:16 8.7 8.6 99 1000.7 21.3 SW 21.3 0.0 8.3
17:17 8.7 8.6 99 1000.7 20.6 SW 21.3 0.0 8.3
17:18 8.8 8.7 99 1000.7 12.1 N 21.3 0.0 8.3
17:19 8.8 8.7 99 1000.7 14.5 SW 21.3 0.0 8.3
17:20 8.7 8.6 99 1000.7 15.9 SW 21.3 0.0 8.3
17:21 8.7 8.6 99 1000.9 15.9 SW 21.3 0.0 8.3
17:23 8.7 8.6 99 1000.7 17.4 NW 21.3 0.0 8.3
17:24 8.8 8.7 99 1000.7 16.8 S 21.3 0.0 8.3
17:25 8.8 8.7 99 1000.5 16.8 W 21.3 0.0 8.3
17:26 8.7 8.6 99 1000.4 13.0 NW 21.3 0.0 8.3
17:27 8.8 8.7 99 1000.3 15.9 S 18.3 0.0 8.3
17:28 8.8 8.7 99 1000.4 15.2 SW 18.3 0.0 8.3
17:29 8.8 8.7 99 1000.6 15.2 NW 18.3 0.0 8.3
17:30 8.8 8.7 99 1000.9 11.4 S 18.3 0.0 8.3
17:31 8.8 8.7 99 1000.7 21.3 SW 21.3 0.0 8.3
17:32 8.8 8.7 99 1000.6 21.3 SW 21.3 0.0 8.3
17:34 8.8 8.7 99 1000.7 20.6 SW 25.9 0.0 8.3
17:35 8.8 8.7 99 1000.5 19.7 NW 25.9 0.0 8.3
17:36 8.8 8.7 99 1000.5 22.8 W 25.9 0.0 8.3
17:37 8.8 8.7 99 1000.8 15.2 SW 25.9 0.0 8.3
17:39 8.8 8.7 99 1000.7 18.3 SW 25.9 0.0 8.3
17:40 8.8 8.7 99 1000.7 13.6 SW 25.9 0.0 8.3
17:41 8.8 8.7 99 1000.9 11.4 SW 25.9 0.0 8.3
17:42 8.8 8.7 99 1000.7 15.2 W 25.9 0.0 8.3
17:43 8.8 8.7 99 1000.7 12.1 SW 25.9 0.0 8.3
17:44 8.8 8.7 99 1000.7 15.9 SW 22.8 0.0 8.3
17:46 8.8 8.7 99 1000.8 14.5 NW 22.8 0.0 8.3
17:47 8.8 8.7 99 1000.8 15.2 S 19.0 0.0 8.3
17:48 8.8 8.7 99 1000.7 16.8 SW 19.0 0.0 8.3
17:49 8.8 8.7 99 1000.8 19.0 NW 19.0 0.0 8.3
17:50 8.8 8.7 99 1000.7 30.4 W 30.4 0.0 8.3
17:52 8.8 8.7 99 1000.8 19.7 NNW 30.4 0.0 8.3
17:53 8.8 8.7 99 1000.9 30.4 NNW 30.4 0.0 8.3
17:54 8.8 8.7 99 1000.9 21.3 SW 30.4 0.0 8.3
17:55 8.8 8.7 99 1001.1 15.2 SW 30.4 0.0 8.3
17:56 8.8 8.7 99 1001.0 21.3 W 30.4 0.0 8.3
17:57 8.7 8.6 99 1001.2 19.0 SW 30.4 0.0 8.3
17:58 8.7 8.6 99 1000.9 19.7 W 30.4 0.0 8.3
17:59 8.7 8.6 99 1000.9 19.0 SW 30.4 0.0 8.3
18:00 8.7 8.6 99 1000.9 18.3 SW 30.4 0.0 8.3
18:02 8.7 8.6 99 1000.9 18.3 SW 30.4 0.0 8.3
18:03 8.6 8.5 99 1000.9 15.2 NW 21.3 0.0 8.3
18:04 8.6 8.5 99 1001.0 14.5 SW 21.3 0.0 8.3
18:05 8.6 8.5 99 1000.8 21.3 SW 21.3 0.0 8.3
18:06 8.5 8.4 99 1000.9 19.0 SW 21.3 0.0 8.3
18:08 8.5 8.4 99 1001.0 18.3 N 21.3 0.0 8.3
18:09 8.5 8.4 99 1001.0 13.6 SW 21.3 0.0 8.3
18:10 8.5 8.4 99 1001.2 19.0 SW 21.3 0.0 8.3
18:11 8.5 8.4 99 1001.0 14.5 W 21.3 0.0 8.3
18:12 8.5 8.4 99 1001.1 12.1 SW 21.3 0.0 8.3
18:14 8.5 8.4 99 1001.2 15.2 SW 21.3 0.0 8.3
18:16 8.5 8.4 99 1001.1 13.0 NW 19.0 0.0 8.3
18:17 8.5 8.4 99 1001.0 13.6 SW 19.0 0.0 8.3
18:19 8.6 8.5 99 1000.9 15.2 S 19.0 0.0 8.3
18:21 8.5 8.4 99 1001.0 18.3 S 18.3 0.0 8.3
18:22 8.5 8.4 99 1001.0 19.7 W 19.7 0.0 8.3
18:24 8.6 8.5 99 1001.0 14.5 WNW 19.7 0.0 8.3
18:25 8.5 8.4 99 1001.2 15.9 WNW 19.7 0.0 8.3
18:26 8.6 8.5 99 1001.0 13.0 W 19.7 0.0 8.3
18:27 8.5 8.4 99 1001.1 14.5 W 19.7 0.0 8.3
18:28 8.5 8.4 99 1001.1 16.8 NW 19.7 0.0 8.3
18:29 8.5 8.4 99 1001.1 13.0 WSW 19.7 0.0 8.3
18:31 8.6 8.5 99 1000.8 14.5 W 19.7 0.0 8.3
18:32 8.5 8.4 99 1000.7 15.9 W 19.7 0.0 8.3
18:33 8.5 8.4 99 1000.8 15.9 NW 19.7 0.0 8.3
18:34 8.5 8.4 99 1000.6 12.1 N 19.7 0.0 8.3
18:35 8.5 8.4 99 1000.6 14.5 N 19.7 0.0 8.3
18:36 8.5 8.4 99 1000.6 15.2 NW 19.7 0.0 8.3
18:37 8.5 8.4 99 1000.6 14.5 W 19.7 0.0 8.3
18:39 8.5 8.4 99 1000.8 9.8 W 18.3 0.0 8.3
18:40 8.5 8.4 99 1000.7 13.6 W 18.3 0.0 8.3
18:41 8.4 8.3 99 1000.8 14.5 NW 15.9 0.0 8.3
18:42 8.4 8.3 99 1000.7 17.4 N 17.4 0.0 8.3
18:43 8.4 8.3 99 1000.9 14.5 S 17.4 0.0 8.3
18:44 8.4 8.3 99 1000.8 14.5 N 17.4 0.0 8.3
18:46 8.4 8.3 99 1000.8 12.1 N 17.4 0.0 8.3
18:47 8.4 8.3 99 1000.7 13.0 N 17.4 0.0 8.3
18:49 8.5 8.4 99 1000.9 11.4 N 17.4 0.0 8.3
18:51 8.5 8.4 99 1000.9 19.7 W 19.7 0.0 8.3
18:52 8.5 8.4 99 1000.8 12.1 W 19.7 0.0 8.3
18:53 8.5 8.4 99 1000.8 13.0 N 19.7 0.0 8.3
18:55 8.5 8.4 99 1000.8 15.2 SW 19.7 0.0 8.3
18:56 8.5 8.4 99 1000.7 19.7 N 19.7 0.0 8.3
18:57 8.5 8.4 99 1000.9 17.4 SW 19.7 0.0 8.3
18:58 8.6 8.5 99 1000.8 15.9 SW 19.7 0.0 8.3
19:00 8.5 8.4 99 1000.9 15.2 WNW 19.7 0.0 8.3
19:01 8.5 8.4 99 1000.7 15.2 WNW 19.7 0.0 8.3
19:02 8.6 8.5 99 1000.8 19.0 WNW 19.7 0.0 8.4
19:03 8.5 8.4 99 1000.7 17.4 N 19.7 1.5 8.4
19:04 8.6 8.5 99 1000.8 23.5 WSW 23.5 1.5 8.4
19:06 8.5 8.4 99 1000.8 17.4 WSW 23.5 1.5 8.4
19:07 8.5 8.4 99 1000.7 15.9 N 23.5 1.5 8.4
19:08 8.5 8.4 99 1000.9 24.4 WSW 24.4 0.0 8.4
19:09 8.5 8.4 99 1000.8 13.0 WSW 24.4 0.0 8.4
19:10 8.5 8.4 99 1000.8 15.9 WSW 24.4 0.0 8.4
19:12 8.5 8.4 99 1000.8 18.3 NW 24.4 0.0 8.4
19:13 8.5 8.4 99 1000.8 13.6 W 24.4 0.0 8.4
19:14 8.5 8.4 99 1000.9 22.1 NNW 24.4 0.0 8.4
19:15 8.5 8.4 99 1001.0 18.3 NNW 24.4 0.0 8.4
19:16 8.5 8.4 99 1001.0 15.2 NW 24.4 0.0 8.4
19:17 8.5 8.4 99 1001.0 15.2 WSW 24.4 0.0 8.4
19:19 8.5 8.4 99 1001.0 21.3 WSW 22.1 0.0 8.4
19:20 8.5 8.4 99 1000.9 17.4 WSW 22.1 0.0 8.4
19:21 8.5 8.4 99 1000.9 16.8 WSW 22.1 0.0 8.4
19:22 8.5 8.4 99 1001.1 17.4 WSW 22.1 0.0 8.4
19:23 8.5 8.4 99 1000.9 19.7 W 22.1 0.0 8.4
19:25 8.5 8.4 99 1000.9 13.6 WSW 21.3 0.0 8.4
19:26 8.6 8.5 99 1000.7 16.8 WSW 21.3 0.0 8.4
19:27 8.6 8.5 99 1000.7 13.0 WSW 21.3 0.0 8.4
19:28 8.5 8.4 99 1000.9 15.2 WSW 21.3 0.0 8.4
19:30 8.5 8.4 99 1000.7 22.1 WSW 22.1 0.0 8.4
19:31 8.5 8.4 99 1000.6 20.6 WSW 22.1 0.0 8.4
19:32 8.5 8.4 99 1000.7 20.6 WSW 22.1 0.0 8.4
19:33 8.5 8.4 99 1000.6 19.7 WSW 22.1 0.0 8.4
19:34 8.5 8.4 99 1000.8 18.3 WSW 22.1 0.0 8.4
19:36 8.7 8.6 99 1001.1 15.2 WSW 22.1 0.8 8.5
19:37 8.6 8.5 99 1000.9 15.9 WSW 22.1 0.8 8.5
19:38 8.6 8.5 99 1001.3 15.9 W 22.1 0.8 8.5
19:39 8.6 8.5 99 1001.1 17.4 WNW 22.1 0.8 8.5
19:41 8.6 8.5 99 1000.9 14.5 W 20.6 0.0 8.5
19:42 8.6 8.5 99 1000.8 19.7 W 20.6 0.0 8.5
19:43 8.6 8.5 99 1000.9 17.4 W 19.7 0.0 8.5
19:44 8.6 8.5 99 1000.9 16.8 WSW 19.7 0.0 8.5
19:46 8.7 8.6 99 1001.0 18.3 S 19.7 0.0 8.5
19:47 8.7 8.6 99 1001.0 18.3 S 19.7 0.0 8.5
19:48 8.6 8.5 99 1001.1 18.3 NW 22.1 0.8 8.6
19:49 8.5 8.4 99 1001.2 23.5 WSW 23.5 1.5 8.6
19:50 8.5 8.4 99 1001.1 13.0 WSW 23.5 1.5 8.6
19:52 8.4 8.3 99 1000.9 19.7 W 23.5 2.3 8.7
19:53 8.4 8.3 99 1000.9 21.3 W 23.5 1.5 8.7
19:54 8.3 8.2 99 1001.0 25.1 N 25.1 0.8 8.7
19:56 8.3 8.2 99 1000.9 19.0 SW 25.1 0.8 8.7
19:57 8.2 8.1 99 1001.1 17.4 WSW 25.1 0.0 8.7
19:58 8.2 8.1 99 1000.9 22.1 WSW 25.1 0.0 8.7
19:59 8.2 8.1 99 1000.7 18.3 WSW 25.1 0.0 8.7
20:00 8.2 8.1 99 1000.7 18.3 WSW 25.1 0.0 8.7
20:02 8.2 8.1 99 1000.6 15.2 W 25.1 0.0 8.7
20:03 8.2 8.1 99 1000.7 16.8 WSW 25.1 0.0 8.7
20:05 8.2 8.1 99 1000.7 15.9 SW 22.1 0.0 8.7
20:07 8.2 8.1 99 1000.5 16.8 WSW 22.1 0.0 8.7
20:08 8.3 8.2 99 1000.6 13.0 WSW 22.1 0.0 8.7
20:09 8.3 8.2 99 1000.7 13.6 W 18.3 0.0 8.7
20:10 8.3 8.2 99 1000.6 15.9 W 18.3 0.0 8.7
20:13 8.2 8.1 99 1000.7 13.6 WSW 19.0 0.0 8.7
20:14 8.3 8.2 99 1000.6 19.0 NW 19.0 0.0 8.7
20:16 8.3 8.2 99 1000.6 19.0 N 20.6 0.0 8.7
20:18 8.4 8.3 99 1000.7 16.8 W 20.6 0.0 8.7
20:19 8.4 8.3 99 1000.8 19.7 W 20.6 0.0 8.7
20:21 8.4 8.3 99 1000.6 16.8 NW 20.6 0.0 8.7
20:22 8.4 8.3 99 1000.6 13.6 W 20.6 0.0 8.7
20:24 8.4 8.3 99 1000.8 18.3 N 20.6 0.0 8.7
20:25 8.5 8.4 99 1000.6 16.8 S 22.8 0.0 8.7
20:27 8.5 8.4 99 1000.5 15.2 N 22.8 0.0 8.7
20:28 8.5 8.4 99 1000.7 22.1 W 22.8 0.0 8.7
20:30 8.6 8.5 99 1000.5 22.1 W 22.8 0.0 8.7
20:31 8.6 8.5 99 1000.5 24.4 SW 24.4 0.0 8.7
20:32 8.6 8.5 99 1000.5 21.3 SW 24.4 0.0 8.7
20:33 8.6 8.5 99 1000.7 23.5 NW 24.4 0.0 8.7
20:34 8.6 8.5 99 1000.3 25.9 SW 25.9 0.0 8.7
20:35 8.7 8.6 99 1000.6 22.8 W 25.9 0.0 8.7
20:36 8.7 8.6 99 1000.5 28.9 SW 28.9 0.0 8.7
20:38 8.7 8.6 99 1000.5 22.8 SW 28.9 0.0 8.7
20:39 8.7 8.6 99 1000.5 25.1 SW 28.9 0.0 8.7
20:40 8.7 8.6 99 1000.7 26.6 NW 28.9 0.0 8.7
20:41 8.7 8.6 99 1000.6 16.8 W 28.9 0.0 8.7
20:42 8.7 8.6 99 1000.4 32.0 W 32.0 0.0 8.7
20:43 8.7 8.6 99 1000.5 23.5 SW 32.0 0.0 8.7
20:44 8.7 8.6 99 1000.5 25.9 SW 32.0 0.0 8.7
20:46 8.8 8.7 99 1000.6 23.5 WNW 32.0 0.0 8.7
20:47 8.7 8.6 99 1000.5 19.0 W 32.0 0.0 8.7
20:48 8.8 8.7 99 1000.5 20.6 SW 32.0 0.0 8.7
20:49 8.8 8.7 99 1000.4 22.1 W 32.0 0.0 8.7
20:51 8.8 8.7 99 1000.4 28.9 W 32.0 0.0 8.7
20:52 8.8 8.7 99 1000.5 19.0 SW 28.9 0.0 8.7
20:53 8.8 8.7 99 1000.6 17.4 NW 28.9 0.0 8.7
20:54 8.8 8.7 99 1000.6 22.8 SW 28.9 0.0 8.7
20:56 8.8 8.7 99 1000.7 19.0 SW 28.9 0.0 8.7
20:57 8.8 8.7 99 1000.3 26.6 SW 28.9 0.0 8.7
20:58 8.8 8.7 99 1000.3 26.6 SW 28.9 0.0 8.7
20:59 8.8 8.7 99 1000.3 23.5 W 28.9 0.0 8.7
21:00 8.8 8.7 99 1000.6 19.7 WNW 28.9 0.0 8.7
21:01 8.8 8.7 99 1000.3 19.7 WNW 26.6 0.0 8.7
21:02 8.8 8.7 99 1000.4 19.7 WNW 26.6 0.0 8.7
21:04 8.8 8.7 99 1000.2 19.7 WNW 26.6 0.0 8.7
21:05 8.8 8.7 99 1000.4 19.7 WNW 26.6 0.0 8.7
21:06 8.8 8.7 99 1000.4 14.5 SW 26.6 0.0 8.7
21:07 8.8 8.7 99 1000.5 19.0 NW 26.6 0.0 8.7
21:08 8.8 8.7 99 1000.4 22.1 W 23.5 0.0 8.7
21:09 8.8 8.7 99 1000.4 16.8 SW 22.1 0.0 8.7
21:11 8.8 8.7 99 1000.6 19.0 SW 22.1 0.0 8.7
21:12 8.8 8.7 99 1000.5 16.8 SW 22.1 0.0 8.7
21:13 8.9 8.8 99 1000.4 15.2 SW 22.1 0.0 8.7
21:14 8.8 8.7 99 1000.6 21.3 N 24.4 0.0 8.7
21:15 8.8 8.7 99 1000.6 15.9 SW 24.4 0.0 8.7
21:16 8.8 8.7 99 1000.6 22.8 SW 24.4 0.0 8.7
21:17 8.8 8.7 99 1000.5 21.3 SW 24.4 0.0 8.7
21:19 8.8 8.7 99 1000.5 19.7 SW 24.4 0.0 8.7
21:20 8.9 8.8 99 1000.5 20.6 SW 24.4 0.0 8.7
21:21 8.9 8.8 99 1000.6 23.5 W 24.4 0.0 8.7
21:22 8.9 8.8 99 1000.4 19.7 W 24.4 0.0 8.7
21:23 8.9 8.8 99 1000.4 20.6 SW 24.4 0.0 8.7
21:24 8.9 8.8 99 1000.0 21.3 SW 23.5 0.0 8.7
21:25 8.9 8.8 99 1000.3 19.0 W 23.5 0.0 8.7
21:27 8.9 8.8 99 1000.3 15.2 NW 23.5 0.0 8.7
21:28 8.9 8.8 99 1000.3 17.4 SW 23.5 0.0 8.7
21:29 8.9 8.8 99 1000.3 16.8 W 23.5 0.0 8.7
21:30 8.9 8.8 99 1000.5 13.0 NW 23.5 0.8 8.8
21:31 8.9 8.8 99 1000.3 22.8 W 22.8 0.8 8.8
21:32 8.9 8.8 99 1000.3 16.8 W 22.8 0.8 8.8
21:33 8.9 8.8 99 1000.4 17.4 SW 22.8 0.8 8.8
21:35 8.8 8.7 99 1000.2 18.3 SW 22.8 0.0 8.8
21:36 8.9 8.8 99 1000.3 19.0 SW 22.8 0.0 8.8
21:37 8.8 8.7 99 1000.5 10.7 SW 22.8 0.0 8.8
21:40 8.8 8.7 99 1000.8 22.1 NW 22.8 5.3 9.3
21:41 8.8 8.7 99 1000.7 17.4 W 22.8 6.0 9.3
21:43 8.7 8.6 99 1001.0 20.6 SW 22.1 6.0 9.3
21:44 8.6 8.5 99 1000.8 23.5 SW 23.5 4.5 9.4
21:45 8.6 8.5 99 1000.7 21.3 W 23.5 2.3 9.4
21:47 8.5 8.4 99 1000.8 21.3 N 23.5 0.8 9.4
21:48 8.4 8.3 99 1000.9 21.3 N 23.5 0.8 9.4
21:49 8.4 8.3 99 1000.9 19.0 NW 23.5 0.0 9.4
21:50 8.4 8.3 99 1000.7 20.6 NW 23.5 0.0 9.4
21:52 8.4 8.3 99 1000.8 22.1 NW 23.5 0.0 9.4
21:53 8.3 8.2 99 1000.6 15.2 N 23.5 0.0 9.4
21:54 8.3 8.2 99 1000.6 16.8 W 23.5 0.0 9.4
21:55 8.3 8.2 99 1000.6 15.9 NW 22.8 0.0 9.4
21:56 8.3 8.2 99 1000.6 18.3 NW 22.1 0.0 9.4
21:57 8.3 8.2 99 1000.6 15.9 NW 22.1 0.0 9.4
21:59 8.2 8.1 99 1000.6 15.2 WNW 22.8 0.0 9.4
22:00 8.2 8.1 99 1000.6 15.2 WNW 22.8 0.0 9.4
22:01 8.2 8.1 99 1000.7 15.2 WNW 22.8 0.0 9.4
22:02 8.2 8.1 99 1000.7 24.4 N 24.4 0.0 9.4
22:03 8.2 8.1 99 1000.8 18.3 W 24.4 0.0 9.4
22:05 8.3 8.2 99 1000.6 14.5 W 24.4 0.0 9.4
22:06 8.3 8.2 99 1000.7 13.6 W 24.4 0.0 9.4
22:07 8.3 8.2 99 1000.7 16.8 W 24.4 0.0 9.4
22:08 8.3 8.2 99 1000.7 17.4 W 24.4 0.0 9.4
22:09 8.2 8.1 99 1000.6 19.0 W 24.4 0.0 9.4
22:10 8.2 8.1 99 1000.5 17.4 N 24.4 0.0 9.4
22:11 8.3 8.2 99 1000.5 17.4 N 24.4 0.0 9.4
22:13 8.3 8.2 99 1000.4 16.8 N 19.0 0.0 9.4
22:14 8.3 8.2 99 1000.4 19.0 N 19.0 0.0 9.4
22:16 8.4 8.3 99 1000.4 15.9 N 19.0 0.0 9.4
22:18 8.4 8.3 99 1000.4 19.0 N 19.0 0.0 9.4
22:19 8.4 8.3 99 1000.7 15.2 N 19.0 0.0 9.4
22:21 8.4 8.3 99 1000.8 16.8 W 19.0 0.0 9.4
22:23 8.4 8.3 99 1000.7 21.3 NW 29.8 1.5 9.5
22:24 8.4 8.3 99 1000.8 26.6 W 29.8 1.5 9.6
22:26 8.4 8.3 99 1000.8 18.3 N 29.8 2.3 9.6
22:28 8.4 8.3 99 1000.9 27.3 N 29.8 0.8 9.6
22:29 8.4 8.3 99 1000.5 31.1 W 31.1 0.8 9.6
22:31 8.4 8.3 99 1000.6 24.4 W 31.1 0.0 9.6
22:32 8.4 8.3 99 1000.6 29.8 W 31.1 0.0 9.6
22:34 8.3 8.2 99 1000.7 28.9 SW 31.1 0.0 9.6
22:35 8.3 8.2 99 1000.6 22.1 NW 31.1 0.0 9.6
22:36 8.3 8.2 99 1000.6 22.1 SW 31.1 0.0 9.6
22:38 8.3 8.2 99 1000.7 19.0 W 31.1 0.0 9.6
22:39 8.3 8.2 99 1000.5 20.6 WNW 31.1 0.0 9.6
22:40 8.3 8.2 99 1000.5 22.8 SW 29.8 0.0 9.6
22:42 8.3 8.2 99 1000.4 26.6 WNW 29.8 0.0 9.6
22:43 8.3 8.2 99 1000.4 22.1 W 28.9 0.0 9.6
22:44 8.3 8.2 99 1000.6 23.5 NW 28.9 0.0 9.6
22:45 8.3 8.2 99 1000.4 23.5 NW 26.6 0.0 9.6
22:46 8.3 8.2 99 1000.2 20.6 NW 26.6 0.0 9.6
22:47 8.3 8.2 99 1000.5 29.8 NNE 29.8 0.0 9.6
22:48 8.3 8.2 99 1000.5 21.3 SW 29.8 0.0 9.6
22:50 8.3 8.2 99 1000.6 24.4 WNW 29.8 0.0 9.6
22:51 8.4 8.3 99 1000.6 19.7 WNW 29.8 0.0 9.6
22:52 8.4 8.3 99 1000.3 21.3 SW 29.8 0.0 9.6
22:53 8.4 8.3 99 1000.6 26.6 SW 29.8 0.0 9.6
22:54 8.4 8.3 99 1000.4 20.6 SW 29.8 0.0 9.6
22:56 8.4 8.3 99 1000.5 18.3 SW 29.8 0.0 9.6
22:57 8.4 8.3 99 1000.3 22.1 SW 29.8 0.0 9.6
22:58 8.4 8.3 99 1000.3 24.4 SW 28.2 0.0 9.6
22:59 8.3 8.2 99 1000.3 20.6 SW 28.2 0.0 9.6
23:00 8.4 8.3 99 1000.2 19.0 SW 26.6 0.0 9.6
23:01 8.4 8.3 99 1000.2 19.0 SW 26.6 0.0 9.6
23:02 8.4 8.3 99 1000.3 19.0 SW 26.6 0.0 9.6
23:04 8.4 8.3 99 1000.2 16.8 SW 25.1 0.0 9.6
23:05 8.4 8.3 99 999.9 22.1 SW 25.1 0.0 9.6
23:06 8.4 8.3 99 1000.0 19.7 W 24.4 0.0 9.6
23:07 8.4 8.3 99 1000.1 22.8 SW 24.4 0.0 9.6
23:08 8.4 8.3 99 1000.1 28.9 SW 28.9 0.0 9.6
23:09 8.4 8.3 99 1000.0 23.5 SW 28.9 0.0 9.6
23:10 8.4 8.3 99 1000.3 22.1 SW 28.9 0.0 9.6
23:11 8.5 8.4 99 1000.4 19.0 SW 28.9 0.0 9.6
23:13 8.5 8.4 99 1000.1 19.0 NW 28.9 0.0 9.6
23:14 8.5 8.4 99 1000.2 19.0 WNW 28.9 0.0 9.6
23:15 8.5 8.4 99 1000.2 15.9 SW 28.9 0.0 9.6
23:16 8.5 8.4 99 1000.4 20.6 W 28.9 0.0 9.6
23:17 8.5 8.4 99 1000.3 26.6 SW 28.9 0.0 9.6
23:18 8.5 8.4 99 1000.3 25.9 W 28.9 0.0 9.6
23:19 8.6 8.5 99 1000.4 23.5 SW 26.6 0.0 9.6
23:20 8.6 8.5 99 1000.2 20.6 SW 26.6 0.0 9.6
23:21 8.6 8.5 99 1000.2 22.1 NW 26.6 0.0 9.6
23:23 8.6 8.5 99 1000.4 18.3 SW 26.6 0.0 9.6
23:24 8.6 8.5 99 1000.3 22.8 SW 26.6 0.0 9.6
23:26 8.6 8.5 99 1000.3 18.3 SW 26.6 0.0 9.6
23:27 8.6 8.5 99 1000.3 19.7 SW 26.6 0.0 9.6
23:28 8.6 8.5 99 1000.5 19.0 SW 25.9 0.0 9.6
23:29 8.7 8.6 99 1000.4 19.0 SW 25.9 0.0 9.6
23:31 8.7 8.6 99 1000.5 20.6 SW 31.1 0.0 9.6
23:32 8.7 8.6 99 1000.4 17.4 SW 31.1 0.0 9.6
23:33 8.7 8.6 99 1000.5 15.2 NNW 31.1 0.0 9.6
23:34 8.7 8.6 99 1000.5 15.9 SW 31.1 0.0 9.6
23:35 8.7 8.6 99 1000.4 22.1 SW 31.1 0.0 9.6
23:36 8.7 8.6 99 1000.5 20.6 SW 31.1 0.0 9.6
23:37 8.7 8.6 99 1000.4 17.4 SW 31.1 0.0 9.6
23:39 8.7 8.6 99 1000.4 14.5 WNW 31.1 0.0 9.6
23:40 8.8 8.7 99 1000.5 17.4 SW 31.1 0.0 9.6
23:41 8.8 8.7 99 1000.3 16.8 WNW 22.1 0.0 9.6
23:42 8.8 8.7 99 1000.5 16.8 SW 22.1 0.0 9.6
23:43 8.8 8.7 99 1000.3 14.5 W 22.1 0.0 9.6
23:44 8.8 8.7 99 1000.3 15.2 W 22.1 0.0 9.6
23:45 8.8 8.7 99 1000.3 13.6 W 22.1 0.0 9.6
23:47 8.8 8.7 99 1000.4 15.2 W 19.0 0.0 9.6
23:48 8.7 8.6 99 1000.5 15.9 SW 19.0 0.0 9.6
23:49 8.7 8.6 99 1000.5 13.6 SE 21.3 0.0 9.6
23:50 8.7 8.6 99 1000.6 18.3 SW 21.3 0.0 9.6
23:51 8.7 8.6 99 1000.5 13.0 W 21.3 0.0 9.6
23:52 8.7 8.6 99 1000.5 17.4 SW 21.3 0.0 9.6
23:53 8.7 8.6 99 1000.6 17.4 SW 21.3 0.0 9.6
23:55 8.7 8.6 99 1000.6 16.8 W 21.3 0.0 9.6
23:56 8.7 8.6 99 1000.4 19.7 S 21.3 0.0 9.6
23:57 8.7 8.6 99 1000.5 19.0 SW 21.3 0.0 9.6
23:58 8.8 8.7 99 1000.4 18.3 SW 21.3 0.0 9.6
23:59 8.7 8.6 99 1000.6 19.0 SW 21.3 0.0 9.6

UK - WEATHER STATION TOPSITES - UK World Weather Websites

This is a private weather station, never base important decisions or events on data from this weather station. Although every effort has been made to make the data as accurate as possible it does not meet MetOffice standards. It is proved as a guide of local weather conditions. We accept no liability for any loss which may arise from use of the data.

Copyright © Carnkie Weather 2009 - 2018.